| time (UTC) | temp F | wind direction | speed MPH | gust MPH | rain 1hr in | rain 24hr in | rain mn in | humidity % | barometer mb |
| 20260503192505 | 80 | 164 | 7.0 | 18.0 | 0.00 | 0.00 | 0.00 | 31 | 1019.2 |
| 20260503192406 | 81 | 157 | 8.0 | 16.0 | 0.00 | 0.00 | 0.00 | 30 | 1019.2 |
| 20260503192205 | 80 | 147 | 7.0 | 14.0 | 0.00 | 0.00 | 0.00 | 32 | 1019.1 |
| 20260503192105 | 80 | 143 | 7.0 | 14.0 | 0.00 | 0.00 | 0.00 | 32 | 1019.0 |
| 20260503191806 | 80 | 146 | 8.0 | 16.0 | 0.00 | 0.00 | 0.00 | 32 | 1019.1 |
| 20260503191705 | 80 | 147 | 8.0 | 16.0 | 0.00 | 0.00 | 0.00 | 32 | 1019.2 |
| 20260503191605 | 80 | 146 | 9.0 | 16.0 | 0.00 | 0.00 | 0.00 | 31 | 1019.2 |
| 20260503191505 | 80 | 146 | 9.0 | 16.0 | 0.00 | 0.00 | 0.00 | 31 | 1019.1 |
| 20260503191405 | 80 | 145 | 8.0 | 16.0 | 0.00 | 0.00 | 0.00 | 31 | 1019.2 |
| 20260503191305 | 81 | 148 | 8.0 | 16.0 | 0.00 | 0.00 | 0.00 | 32 | 1019.2 |
| 20260503191105 | 80 | 150 | 7.0 | 16.0 | 0.00 | 0.00 | 0.00 | 32 | 1019.3 |
| 20260503191005 | 80 | 154 | 7.0 | 16.0 | 0.00 | 0.00 | 0.00 | 31 | 1019.3 |
| 20260503190904 | 80 | 156 | 7.0 | 14.0 | 0.00 | 0.00 | 0.00 | 32 | 1019.3 |
| 20260503190805 | 80 | 156 | 7.0 | 14.0 | 0.00 | 0.00 | 0.00 | 32 | 1019.3 |
| 20260503190705 | 80 | 159 | 7.0 | 14.0 | 0.00 | 0.00 | 0.00 | 31 | 1019.3 |
| 20260503190605 | 80 | 161 | 7.0 | 14.0 | 0.00 | 0.00 | 0.00 | 32 | 1019.3 |
| 20260503190505 | 80 | 166 | 7.0 | 14.0 | 0.00 | 0.00 | 0.00 | 31 | 1019.3 |
| 20260503190405 | 80 | 171 | 7.0 | 14.0 | 0.00 | 0.00 | 0.00 | 31 | 1019.3 |
| 20260503190304 | 80 | 171 | 8.0 | 14.0 | 0.00 | 0.00 | 0.00 | 31 | 1019.4 |
| 20260503190205 | 80 | 173 | 8.0 | 17.0 | 0.00 | 0.00 | 0.00 | 31 | 1019.4 |
| 20260503190005 | 80 | 176 | 9.0 | 17.0 | 0.00 | 0.00 | 0.00 | 31 | 1019.5 |
| 20260503185905 | 80 | 175 | 8.0 | 17.0 | 0.00 | 0.00 | 0.00 | 34 | 1019.5 |
| 20260503185804 | 80 | 175 | 8.0 | 17.0 | 0.00 | 0.00 | 0.00 | 31 | 1019.5 |
| 20260503185705 | 80 | 173 | 8.0 | 17.0 | 0.00 | 0.00 | 0.00 | 30 | 1019.5 |
| 20260503185604 | 80 | 175 | 8.0 | 17.0 | 0.00 | 0.00 | 0.00 | 33 | 1019.5 |
| 20260503185505 | 80 | 172 | 8.0 | 17.0 | 0.00 | 0.00 | 0.00 | 32 | 1019.6 |
| 20260503185405 | 80 | 172 | 8.0 | 17.0 | 0.00 | 0.00 | 0.00 | 31 | 1019.5 |
| 20260503185205 | 80 | 171 | 9.0 | 17.0 | 0.00 | 0.00 | 0.00 | 31 | 1019.6 |
| 20260503185005 | 80 | 170 | 9.0 | 17.0 | 0.00 | 0.00 | 0.00 | 33 | 1019.6 |
| 20260503184906 | 80 | 171 | 9.0 | 17.0 | 0.00 | 0.00 | 0.00 | 31 | 1019.6 |
| 20260503184704 | 80 | 173 | 9.0 | 17.0 | 0.00 | 0.00 | 0.00 | 31 | 1019.8 |
| 20260503184605 | 80 | 174 | 9.0 | 17.0 | 0.00 | 0.00 | 0.00 | 32 | 1019.8 |
| 20260503184405 | 80 | 176 | 8.0 | 17.0 | 0.00 | 0.00 | 0.00 | 32 | 1019.7 |
| 20260503184205 | 80 | 176 | 7.0 | 15.0 | 0.00 | 0.00 | 0.00 | 32 | 1019.8 |
| 20260503184005 | 80 | 174 | 6.0 | 15.0 | 0.00 | 0.00 | 0.00 | 32 | 1019.7 |
| 20260503183905 | 80 | 173 | 6.0 | 11.0 | 0.00 | 0.00 | 0.00 | 32 | 1019.7 |
| 20260503183805 | 80 | 175 | 6.0 | 11.0 | 0.00 | 0.00 | 0.00 | 34 | 1019.7 |
| 20260503183705 | 80 | 178 | 6.0 | 11.0 | 0.00 | 0.00 | 0.00 | 31 | 1019.8 |
| 20260503183605 | 80 | 183 | 6.0 | 11.0 | 0.00 | 0.00 | 0.00 | 31 | 1019.8 |
| 20260503183405 | 80 | 185 | 6.0 | 12.0 | 0.00 | 0.00 | 0.00 | 32 | 1019.9 |
| 20260503183304 | 80 | 186 | 6.0 | 13.0 | 0.00 | 0.00 | 0.00 | 33 | 1019.9 |
| 20260503183205 | 80 | 189 | 7.0 | 13.0 | 0.00 | 0.00 | 0.00 | 33 | 1019.9 |
| 20260503183104 | 80 | 192 | 7.0 | 14.0 | 0.00 | 0.00 | 0.00 | 33 | 1019.9 |
| 20260503182904 | 79 | 194 | 7.0 | 14.0 | 0.00 | 0.00 | 0.00 | 32 | 1019.9 |
| 20260503182805 | 79 | 194 | 8.0 | 14.0 | 0.00 | 0.00 | 0.00 | 32 | 1019.9 |
| 20260503182704 | 80 | 191 | 8.0 | 14.0 | 0.00 | 0.00 | 0.00 | 31 | 1019.9 |
| 20260503182605 | 80 | 185 | 7.0 | 14.0 | 0.00 | 0.00 | 0.00 | 32 | 1019.9 |
| 20260503182404 | 80 | 181 | 6.0 | 14.0 | 0.00 | 0.00 | 0.00 | 32 | 1020.0 |
| 20260503182306 | 80 | 178 | 6.0 | 14.0 | 0.00 | 0.00 | 0.00 | 31 | 1020.1 |
| 20260503182204 | 80 | 175 | 6.0 | 14.0 | 0.00 | 0.00 | 0.00 | 31 | 1020.1 |
| 20260503182105 | 80 | 172 | 6.0 | 13.0 | 0.00 | 0.00 | 0.00 | 31 | 1020.1 |
| 20260503182006 | 80 | 171 | 6.0 | 11.0 | 0.00 | 0.00 | 0.00 | 31 | 1020.1 |
| 20260503181905 | 80 | 171 | 6.0 | 11.0 | 0.00 | 0.00 | 0.00 | 31 | 1020.3 |
| 20260503181805 | 80 | 171 | 6.0 | 12.0 | 0.00 | 0.00 | 0.00 | 31 | 1020.2 |
| 20260503181704 | 79 | 174 | 7.0 | 16.0 | 0.00 | 0.00 | 0.00 | 34 | 1020.3 |
| 20260503181605 | 79 | 176 | 7.0 | 16.0 | 0.00 | 0.00 | 0.00 | 32 | 1020.2 |
| 20260503181506 | 79 | 177 | 8.0 | 16.0 | 0.00 | 0.00 | 0.00 | 32 | 1020.2 |
| 20260503181405 | 79 | 177 | 8.0 | 16.0 | 0.00 | 0.00 | 0.00 | 30 | 1020.3 |
| 20260503181305 | 80 | 184 | 8.0 | 16.0 | 0.00 | 0.00 | 0.00 | 31 | 1020.4 |
| 20260503181205 | 79 | 186 | 8.0 | 16.0 | 0.00 | 0.00 | 0.00 | 33 | 1020.4 |
| 20260503181104 | 79 | 187 | 8.0 | 16.0 | 0.00 | 0.00 | 0.00 | 31 | 1020.4 |
| 20260503181005 | 79 | 190 | 8.0 | 16.0 | 0.00 | 0.00 | 0.00 | 33 | 1020.4 |
| 20260503180904 | 79 | 193 | 8.0 | 16.0 | 0.00 | 0.00 | 0.00 | 31 | 1020.5 |
| 20260503180805 | 79 | 197 | 8.0 | 16.0 | 0.00 | 0.00 | 0.00 | 32 | 1020.4 |
| 20260503180704 | 79 | 199 | 8.0 | 16.0 | 0.00 | 0.00 | 0.00 | 31 | 1020.5 |
| 20260503180504 | 80 | 208 | 8.0 | 16.0 | 0.00 | 0.00 | 0.00 | 30 | 1020.5 |
| 20260503180405 | 80 | 214 | 7.0 | 15.0 | 0.00 | 0.00 | 0.00 | 31 | 1020.5 |
| 20260503180304 | 80 | 214 | 8.0 | 15.0 | 0.00 | 0.00 | 0.00 | 31 | 1020.4 |
| 20260503180205 | 79 | 211 | 8.0 | 15.0 | 0.00 | 0.00 | 0.00 | 31 | 1020.5 |
| 20260503180104 | 79 | 206 | 8.0 | 15.0 | 0.00 | 0.00 | 0.00 | 31 | 1020.5 |
| 20260503180005 | 79 | 204 | 8.0 | 15.0 | 0.00 | 0.00 | 0.00 | 31 | 1020.6 |
| 20260503175904 | 79 | 199 | 7.0 | 15.0 | 0.00 | 0.00 | 0.00 | 31 | 1020.6 |
| 20260503175805 | 79 | 197 | 7.0 | 15.0 | 0.00 | 0.00 | 0.00 | 31 | 1020.6 |
| 20260503175705 | 79 | 196 | 7.0 | 15.0 | 0.00 | 0.00 | 0.00 | 32 | 1020.6 |
| 20260503175605 | 79 | 195 | 7.0 | 14.0 | 0.00 | 0.00 | 0.00 | 32 | 1020.6 |
| 20260503175505 | 79 | 193 | 7.0 | 14.0 | 0.00 | 0.00 | 0.00 | 30 | 1020.6 |
| 20260503175305 | 80 | 185 | 6.0 | 14.0 | 0.00 | 0.00 | 0.00 | 31 | 1020.6 |
| 20260503175204 | 80 | 185 | 6.0 | 14.0 | 0.00 | 0.00 | 0.00 | 33 | 1020.6 |
| 20260503175105 | 80 | 186 | 6.0 | 13.0 | 0.00 | 0.00 | 0.00 | 33 | 1020.6 |
| 20260503174904 | 80 | 187 | 7.0 | 13.0 | 0.00 | 0.00 | 0.00 | 34 | 1020.7 |
| 20260503174805 | 79 | 186 | 7.0 | 13.0 | 0.00 | 0.00 | 0.00 | 32 | 1020.7 |
| 20260503174705 | 79 | 183 | 7.0 | 13.0 | 0.00 | 0.00 | 0.00 | 31 | 1020.7 |
| 20260503174605 | 80 | 177 | 6.0 | 13.0 | 0.00 | 0.00 | 0.00 | 32 | 1020.8 |
| 20260503174505 | 80 | 172 | 6.0 | 13.0 | 0.00 | 0.00 | 0.00 | 34 | 1020.8 |
| 20260503174304 | 80 | 170 | 5.0 | 12.0 | 0.00 | 0.00 | 0.00 | 34 | 1020.7 |
| 20260503174205 | 80 | 172 | 5.0 | 12.0 | 0.00 | 0.00 | 0.00 | 34 | 1020.8 |
| 20260503174105 | 79 | 172 | 5.0 | 10.0 | 0.00 | 0.00 | 0.00 | 34 | 1020.7 |
| 20260503174005 | 79 | 169 | 5.0 | 10.0 | 0.00 | 0.00 | 0.00 | 34 | 1020.7 |
| 20260503173904 | 79 | 168 | 5.0 | 9.0 | 0.00 | 0.00 | 0.00 | 33 | 1020.8 |
| 20260503173805 | 79 | 166 | 5.0 | 10.0 | 0.00 | 0.00 | 0.00 | 35 | 1020.8 |
| 20260503173706 | 79 | 169 | 6.0 | 10.0 | 0.00 | 0.00 | 0.00 | 33 | 1020.8 |
| 20260503173605 | 79 | 173 | 6.0 | 10.0 | 0.00 | 0.00 | 0.00 | 35 | 1020.8 |
| 20260503173505 | 79 | 177 | 7.0 | 11.0 | 0.00 | 0.00 | 0.00 | 34 | 1020.8 |
| 20260503173404 | 79 | 181 | 7.0 | 14.0 | 0.00 | 0.00 | 0.00 | 34 | 1020.8 |
| 20260503173305 | 79 | 183 | 7.0 | 14.0 | 0.00 | 0.00 | 0.00 | 34 | 1020.9 |
| 20260503173205 | 79 | 184 | 6.0 | 14.0 | 0.00 | 0.00 | 0.00 | 33 | 1020.8 |
| 20260503173105 | 79 | 188 | 6.0 | 14.0 | 0.00 | 0.00 | 0.00 | 34 | 1020.9 |
| 20260503173004 | 79 | 194 | 6.0 | 14.0 | 0.00 | 0.00 | 0.00 | 32 | 1020.9 |
| 20260503172905 | 79 | 196 | 7.0 | 14.0 | 0.00 | 0.00 | 0.00 | 34 | 1020.9 |
| 20260503172705 | 79 | 204 | 7.0 | 15.0 | 0.00 | 0.00 | 0.00 | 34 | 1020.9 |
| 20260503172605 | 79 | 205 | 7.0 | 15.0 | 0.00 | 0.00 | 0.00 | 34 | 1020.9 |
| 20260503172504 | 79 | 205 | 7.0 | 15.0 | 0.00 | 0.00 | 0.00 | 34 | 1020.9 |
| 20260503172405 | 78 | 200 | 6.0 | 15.0 | 0.00 | 0.00 | 0.00 | 34 | 1020.9 |
| 20260503172306 | 79 | 193 | 6.0 | 15.0 | 0.00 | 0.00 | 0.00 | 34 | 1021.0 |
| 20260503172004 | 79 | 177 | 7.0 | 15.0 | 0.00 | 0.00 | 0.00 | 33 | 1021.2 |
| 20260503171905 | 79 | 176 | 7.0 | 15.0 | 0.00 | 0.00 | 0.00 | 33 | 1021.2 |
| 20260503171805 | 79 | 174 | 7.0 | 15.0 | 0.00 | 0.00 | 0.00 | 34 | 1021.2 |
| 20260503171706 | 79 | 169 | 6.0 | 13.0 | 0.00 | 0.00 | 0.00 | 34 | 1021.2 |
| 20260503171604 | 79 | 169 | 6.0 | 13.0 | 0.00 | 0.00 | 0.00 | 33 | 1021.1 |
| 20260503171505 | 79 | 170 | 6.0 | 13.0 | 0.00 | 0.00 | 0.00 | 32 | 1021.2 |
| 20260503171406 | 78 | 179 | 6.0 | 13.0 | 0.00 | 0.00 | 0.00 | 34 | 1021.2 |
| 20260503171204 | 79 | 197 | 6.0 | 13.0 | 0.00 | 0.00 | 0.00 | 34 | 1021.2 |
| 20260503171105 | 79 | 204 | 6.0 | 13.0 | 0.00 | 0.00 | 0.00 | 34 | 1021.3 |
| 20260503171005 | 79 | 209 | 6.0 | 13.0 | 0.00 | 0.00 | 0.00 | 34 | 1021.3 |
| 20260503170905 | 79 | 211 | 6.0 | 13.0 | 0.00 | 0.00 | 0.00 | 34 | 1021.3 |
| 20260503170805 | 78 | 215 | 6.0 | 13.0 | 0.00 | 0.00 | 0.00 | 34 | 1021.3 |
| 20260503170705 | 78 | 215 | 7.0 | 13.0 | 0.00 | 0.00 | 0.00 | 34 | 1021.3 |
| 20260503170604 | 78 | 214 | 7.0 | 13.0 | 0.00 | 0.00 | 0.00 | 34 | 1021.3 |
| 20260503170505 | 78 | 216 | 6.0 | 13.0 | 0.00 | 0.00 | 0.00 | 33 | 1021.3 |
| 20260503170404 | 78 | 217 | 6.0 | 13.0 | 0.00 | 0.00 | 0.00 | 33 | 1021.3 |
| 20260503170305 | 78 | 214 | 6.0 | 13.0 | 0.00 | 0.00 | 0.00 | 33 | 1021.4 |
| 20260503170204 | 78 | 215 | 7.0 | 13.0 | 0.00 | 0.00 | 0.00 | 35 | 1021.4 |
| 20260503170105 | 78 | 214 | 7.0 | 13.0 | 0.00 | 0.00 | 0.00 | 35 | 1021.4 |
| 20260503160204 | 76 | 209 | 6.0 | 13.0 | 0.00 | 0.00 | 0.00 | 36 | 1021.8 |
| 20260503151005 | 71 | 225 | 7.0 | 12.0 | 0.00 | 0.00 | 0.00 | 52 | 1021.9 |
| 20260503150904 | 71 | 223 | 7.0 | 12.0 | 0.00 | 0.00 | 0.00 | 52 | 1021.9 |
| 20260503150805 | 71 | 223 | 7.0 | 12.0 | 0.00 | 0.00 | 0.00 | 52 | 1021.9 |
| 20260503150705 | 71 | 222 | 7.0 | 12.0 | 0.00 | 0.00 | 0.00 | 54 | 1021.9 |
| 20260503150605 | 71 | 224 | 7.0 | 12.0 | 0.00 | 0.00 | 0.00 | 53 | 1021.9 |
| 20260503150505 | 71 | 224 | 7.0 | 12.0 | 0.00 | 0.00 | 0.00 | 53 | 1022.0 |
| 20260503150405 | 71 | 224 | 7.0 | 12.0 | 0.00 | 0.00 | 0.00 | 53 | 1021.9 |
| 20260503150304 | 71 | 226 | 6.0 | 12.0 | 0.00 | 0.00 | 0.00 | 53 | 1021.9 |
| 20260503150206 | 71 | 228 | 6.0 | 12.0 | 0.00 | 0.00 | 0.00 | 55 | 1021.9 |
| 20260503150104 | 71 | 228 | 6.0 | 12.0 | 0.00 | 0.00 | 0.00 | 55 | 1021.9 |
| 20260503140305 | 65 | 249 | 5.0 | 9.0 | 0.00 | 0.00 | 0.00 | 63 | 1021.6 |
| 20260503140106 | 64 | 250 | 5.0 | 9.0 | 0.00 | 0.00 | 0.00 | 63 | 1021.6 |
| 20260503131405 | 60 | 250 | 5.0 | 10.0 | 0.00 | 0.00 | 0.00 | 68 | 1021.5 |
| 20260503131304 | 60 | 249 | 5.0 | 10.0 | 0.00 | 0.00 | 0.00 | 68 | 1021.5 |
| 20260503131204 | 60 | 249 | 5.0 | 10.0 | 0.00 | 0.00 | 0.00 | 68 | 1021.4 |
| 20260503131104 | 60 | 247 | 5.0 | 10.0 | 0.00 | 0.00 | 0.00 | 69 | 1021.4 |
| 20260503131005 | 60 | 248 | 5.0 | 10.0 | 0.00 | 0.00 | 0.00 | 69 | 1021.4 |
| 20260503130904 | 60 | 248 | 5.0 | 10.0 | 0.00 | 0.00 | 0.00 | 69 | 1021.3 |
| 20260503130704 | 60 | 248 | 5.0 | 9.0 | 0.00 | 0.00 | 0.00 | 69 | 1021.4 |
| 20260503130604 | 60 | 249 | 5.0 | 9.0 | 0.00 | 0.00 | 0.00 | 69 | 1021.4 |
| 20260503130504 | 59 | 249 | 5.0 | 9.0 | 0.00 | 0.00 | 0.00 | 69 | 1021.4 |
| 20260503130404 | 59 | 249 | 5.0 | 9.0 | 0.00 | 0.00 | 0.00 | 69 | 1021.4 |
| 20260503130305 | 59 | 250 | 5.0 | 9.0 | 0.00 | 0.00 | 0.00 | 69 | 1021.4 |
| 20260503130104 | 59 | 252 | 5.0 | 9.0 | 0.00 | 0.00 | 0.00 | 69 | 1021.3 |
| 20260503120203 | 56 | 252 | 5.0 | 9.0 | 0.00 | 0.00 | 0.00 | 73 | 1020.6 |
| 20260503120104 | 56 | 252 | 5.0 | 9.0 | 0.00 | 0.00 | 0.00 | 73 | 1020.6 |
| 20260503110803 | 56 | 256 | 5.0 | 8.0 | 0.00 | 0.00 | 0.00 | 74 | 1020.3 |
| 20260503110704 | 56 | 257 | 5.0 | 8.0 | 0.00 | 0.00 | 0.00 | 74 | 1020.3 |
| 20260503110604 | 56 | 257 | 5.0 | 8.0 | 0.00 | 0.00 | 0.00 | 74 | 1020.3 |
| 20260503110203 | 56 | 257 | 5.0 | 8.0 | 0.00 | 0.00 | 0.00 | 73 | 1020.3 |
| 20260503110104 | 56 | 257 | 4.0 | 8.0 | 0.00 | 0.00 | 0.00 | 74 | 1020.3 |
| 20260503100204 | 56 | 256 | 4.0 | 7.0 | 0.00 | 0.00 | 0.00 | 75 | 1020.1 |
| 20260503100104 | 56 | 256 | 5.0 | 7.0 | 0.00 | 0.00 | 0.00 | 75 | 1020.1 |
| 20260503090404 | 57 | 245 | 4.0 | 8.0 | 0.00 | 0.00 | 0.00 | 73 | 1020.0 |
| 20260503090304 | 57 | 246 | 3.0 | 8.0 | 0.00 | 0.00 | 0.00 | 73 | 1020.0 |
| 20260503090204 | 57 | 246 | 3.0 | 8.0 | 0.00 | 0.00 | 0.00 | 73 | 1020.0 |
| 20260503090104 | 57 | 247 | 3.0 | 8.0 | 0.00 | 0.00 | 0.00 | 73 | 1020.1 |
| 20260503081605 | 57 | 242 | 3.0 | 6.0 | 0.00 | 0.00 | 0.00 | 73 | 1019.8 |
| 20260503081504 | 57 | 240 | 3.0 | 6.0 | 0.00 | 0.00 | 0.00 | 73 | 1019.8 |
| 20260503081404 | 57 | 241 | 3.0 | 5.0 | 0.00 | 0.00 | 0.00 | 73 | 1019.8 |
| 20260503081204 | 57 | 239 | 3.0 | 5.0 | 0.00 | 0.00 | 0.00 | 73 | 1019.9 |
| 20260503081103 | 57 | 239 | 3.0 | 5.0 | 0.00 | 0.00 | 0.00 | 73 | 1019.8 |
| 20260503081005 | 57 | 239 | 3.0 | 5.0 | 0.00 | 0.00 | 0.00 | 73 | 1019.9 |
| 20260503080804 | 57 | 238 | 3.0 | 5.0 | 0.00 | 0.00 | 0.00 | 73 | 1019.9 |
| 20260503080704 | 57 | 237 | 3.0 | 5.0 | 0.00 | 0.00 | 0.00 | 73 | 1019.9 |
| 20260503080604 | 57 | 236 | 3.0 | 5.0 | 0.00 | 0.00 | 0.00 | 73 | 1019.9 |
| 20260503080504 | 57 | 236 | 3.0 | 5.0 | 0.00 | 0.00 | 0.00 | 72 | 1019.8 |
| 20260503080304 | 57 | 236 | 3.0 | 5.0 | 0.00 | 0.00 | 0.00 | 73 | 1019.8 |
| 20260503080204 | 57 | 235 | 3.0 | 5.0 | 0.00 | 0.00 | 0.00 | 73 | 1019.9 |
| 20260503080104 | 57 | 235 | 3.0 | 5.0 | 0.00 | 0.00 | 0.00 | 73 | 1019.9 |
| 20260503072904 | 57 | 241 | 3.0 | 5.0 | 0.00 | 0.00 | 0.00 | 74 | 1020.2 |
| 20260503072804 | 57 | 241 | 3.0 | 5.0 | 0.00 | 0.00 | 0.00 | 74 | 1020.2 |
| 20260503072704 | 57 | 242 | 3.0 | 5.0 | 0.00 | 0.00 | 0.00 | 74 | 1020.2 |
| 20260503072504 | 57 | 242 | 3.0 | 4.0 | 0.00 | 0.00 | 0.00 | 74 | 1020.2 |
| 20260503072404 | 57 | 243 | 3.0 | 4.0 | 0.00 | 0.00 | 0.00 | 74 | 1020.2 |
| 20260503072305 | 57 | 243 | 3.0 | 4.0 | 0.00 | 0.00 | 0.00 | 74 | 1020.2 |
| 20260503072104 | 57 | 243 | 3.0 | 4.0 | 0.00 | 0.00 | 0.00 | 73 | 1020.2 |
| 20260503072004 | 57 | 242 | 3.0 | 4.0 | 0.00 | 0.00 | 0.00 | 73 | 1020.3 |
| 20260503071904 | 57 | 242 | 2.0 | 4.0 | 0.00 | 0.00 | 0.00 | 73 | 1020.2 |
| 20260503071803 | 57 | 241 | 2.0 | 5.0 | 0.00 | 0.00 | 0.00 | 73 | 1020.2 |
| 20260503071704 | 58 | 239 | 2.0 | 5.0 | 0.00 | 0.00 | 0.00 | 73 | 1020.2 |
| 20260503071603 | 58 | 238 | 2.0 | 5.0 | 0.00 | 0.00 | 0.00 | 72 | 1020.2 |
| 20260503071504 | 58 | 237 | 2.0 | 5.0 | 0.00 | 0.00 | 0.00 | 72 | 1020.2 |
| 20260503071404 | 58 | 234 | 3.0 | 5.0 | 0.00 | 0.00 | 0.00 | 72 | 1020.2 |
| 20260503071105 | 58 | 230 | 3.0 | 5.0 | 0.00 | 0.00 | 0.00 | 71 | 1020.3 |
| 20260503071004 | 58 | 229 | 3.0 | 6.0 | 0.00 | 0.00 | 0.00 | 70 | 1020.3 |
| 20260503070904 | 59 | 228 | 3.0 | 6.0 | 0.00 | 0.00 | 0.00 | 70 | 1020.3 |
| 20260503070804 | 58 | 227 | 3.0 | 6.0 | 0.00 | 0.00 | 0.00 | 70 | 1020.2 |
| 20260503070604 | 58 | 226 | 3.0 | 6.0 | 0.00 | 0.00 | 0.00 | 70 | 1020.3 |
| 20260503070505 | 58 | 227 | 3.0 | 6.0 | 0.00 | 0.00 | 0.00 | 70 | 1020.3 |
| 20260503070404 | 58 | 227 | 3.0 | 6.0 | 0.00 | 0.00 | 0.00 | 71 | 1020.3 |
| 20260503070304 | 58 | 228 | 3.0 | 6.0 | 0.00 | 0.00 | 0.00 | 71 | 1020.4 |
| 20260503070203 | 58 | 229 | 3.0 | 6.0 | 0.00 | 0.00 | 0.00 | 71 | 1020.4 |
| 20260503070105 | 58 | 229 | 3.0 | 6.0 | 0.00 | 0.00 | 0.00 | 71 | 1020.4 |
| 20260503060203 | 58 | 242 | 3.0 | 5.0 | 0.00 | 0.00 | 0.00 | 72 | 1020.5 |
| 20260503055104 | 59 | 231 | 2.0 | 5.0 | 0.00 | 0.00 | 0.00 | 70 | 1020.5 |
| 20260503055004 | 59 | 230 | 2.0 | 5.0 | 0.00 | 0.00 | 0.00 | 70 | 1020.5 |
| 20260503054904 | 59 | 229 | 3.0 | 6.0 | 0.00 | 0.00 | 0.00 | 70 | 1020.5 |
| 20260503054803 | 59 | 229 | 3.0 | 6.0 | 0.00 | 0.00 | 0.00 | 71 | 1020.6 |
| 20260503054704 | 59 | 229 | 3.0 | 6.0 | 0.00 | 0.00 | 0.00 | 71 | 1020.5 |
| 20260503054603 | 59 | 229 | 3.0 | 6.0 | 0.00 | 0.00 | 0.00 | 71 | 1020.6 |
| 20260503054504 | 59 | 229 | 3.0 | 6.0 | 0.00 | 0.00 | 0.00 | 71 | 1020.6 |
| 20260503054404 | 59 | 231 | 3.0 | 6.0 | 0.00 | 0.00 | 0.00 | 71 | 1020.6 |
| 20260503054304 | 59 | 232 | 3.0 | 6.0 | 0.00 | 0.00 | 0.00 | 71 | 1020.6 |
| 20260503054205 | 59 | 233 | 2.0 | 6.0 | 0.00 | 0.00 | 0.00 | 71 | 1020.6 |
| 20260503054104 | 59 | 235 | 2.0 | 6.0 | 0.00 | 0.00 | 0.00 | 71 | 1020.6 |
| 20260503054004 | 59 | 237 | 2.0 | 6.0 | 0.00 | 0.00 | 0.00 | 71 | 1020.6 |
| 20260503053904 | 59 | 240 | 2.0 | 4.0 | 0.00 | 0.00 | 0.00 | 71 | 1020.6 |
| 20260503053803 | 59 | 242 | 2.0 | 4.0 | 0.00 | 0.00 | 0.00 | 71 | 1020.6 |
| 20260503053703 | 59 | 243 | 2.0 | 4.0 | 0.00 | 0.00 | 0.00 | 70 | 1020.6 |
| 20260503053604 | 59 | 244 | 2.0 | 4.0 | 0.00 | 0.00 | 0.00 | 70 | 1020.6 |
| 20260503053504 | 59 | 244 | 2.0 | 5.0 | 0.00 | 0.00 | 0.00 | 70 | 1020.6 |
| 20260503053404 | 59 | 243 | 2.0 | 5.0 | 0.00 | 0.00 | 0.00 | 70 | 1020.7 |
| 20260503053204 | 60 | 241 | 3.0 | 5.0 | 0.00 | 0.00 | 0.00 | 70 | 1020.7 |
| 20260503053104 | 60 | 239 | 3.0 | 5.0 | 0.00 | 0.00 | 0.00 | 69 | 1020.7 |
| 20260503053003 | 60 | 238 | 3.0 | 6.0 | 0.00 | 0.00 | 0.00 | 69 | 1020.7 |
| 20260503052904 | 60 | 236 | 3.0 | 6.0 | 0.00 | 0.00 | 0.00 | 68 | 1020.7 |
| 20260503052803 | 60 | 235 | 3.0 | 6.0 | 0.00 | 0.00 | 0.00 | 68 | 1020.7 |
| 20260503052704 | 60 | 233 | 3.0 | 6.0 | 0.00 | 0.00 | 0.00 | 68 | 1020.7 |
| 20260503052504 | 60 | 232 | 3.0 | 6.0 | 0.00 | 0.00 | 0.00 | 68 | 1020.7 |
| 20260503052404 | 60 | 232 | 3.0 | 6.0 | 0.00 | 0.00 | 0.00 | 68 | 1020.7 |
| 20260503052305 | 60 | 232 | 3.0 | 6.0 | 0.00 | 0.00 | 0.00 | 68 | 1020.6 |
| 20260503052204 | 60 | 232 | 3.0 | 6.0 | 0.00 | 0.00 | 0.00 | 69 | 1020.6 |
| 20260503052003 | 60 | 233 | 3.0 | 6.0 | 0.00 | 0.00 | 0.00 | 69 | 1020.6 |
| 20260503051804 | 60 | 236 | 3.0 | 5.0 | 0.00 | 0.00 | 0.00 | 69 | 1020.7 |
| 20260503051704 | 60 | 238 | 3.0 | 5.0 | 0.00 | 0.00 | 0.00 | 69 | 1020.6 |
| 20260503051603 | 60 | 239 | 3.0 | 5.0 | 0.00 | 0.00 | 0.00 | 69 | 1020.6 |
| 20260503051504 | 60 | 237 | 3.0 | 7.0 | 0.00 | 0.00 | 0.00 | 69 | 1020.6 |
| 20260503051404 | 60 | 235 | 3.0 | 7.0 | 0.00 | 0.00 | 0.00 | 68 | 1020.7 |
| 20260503051304 | 60 | 233 | 3.0 | 7.0 | 0.00 | 0.00 | 0.00 | 68 | 1020.6 |
| 20260503051204 | 60 | 232 | 4.0 | 7.0 | 0.00 | 0.00 | 0.00 | 67 | 1020.6 |
| 20260503051104 | 61 | 230 | 4.0 | 7.0 | 0.00 | 0.00 | 0.00 | 67 | 1020.6 |
| 20260503051004 | 61 | 228 | 4.0 | 7.0 | 0.00 | 0.00 | 0.00 | 66 | 1020.6 |
| 20260503050904 | 61 | 226 | 4.0 | 7.0 | 0.00 | 0.00 | 0.00 | 66 | 1020.6 |
| 20260503050803 | 61 | 224 | 4.0 | 7.0 | 0.00 | 0.00 | 0.00 | 65 | 1020.6 |
| 20260503050704 | 61 | 223 | 4.0 | 7.0 | 0.00 | 0.00 | 0.00 | 65 | 1020.5 |
| 20260503050603 | 61 | 222 | 4.0 | 7.0 | 0.00 | 0.00 | 0.00 | 65 | 1020.5 |
| 20260503050504 | 61 | 221 | 4.0 | 6.0 | 0.00 | 0.00 | 0.00 | 65 | 1020.5 |
| 20260503050304 | 61 | 220 | 4.0 | 6.0 | 0.00 | 0.00 | 0.00 | 65 | 1020.5 |
| 20260503050104 | 61 | 220 | 4.0 | 5.0 | 0.00 | 0.00 | 0.00 | 65 | 1020.5 |
| 20260503050005 | 61 | 219 | 3.0 | 5.0 | 0.00 | 0.00 | 0.00 | 65 | 1020.4 |
| 20260503045704 | 61 | 219 | 3.0 | 5.0 | 0.00 | 0.00 | 0.00 | 66 | 1020.3 |
| 20260503045604 | 61 | 219 | 3.0 | 5.0 | 0.00 | 0.00 | 0.00 | 66 | 1020.3 |
| 20260503045503 | 61 | 219 | 3.0 | 5.0 | 0.00 | 0.00 | 0.00 | 66 | 1020.3 |
| 20260503045404 | 61 | 220 | 3.0 | 5.0 | 0.00 | 0.00 | 0.00 | 66 | 1020.3 |
| 20260503045305 | 61 | 221 | 3.0 | 5.0 | 0.00 | 0.00 | 0.00 | 66 | 1020.4 |
| 20260503045204 | 61 | 221 | 3.0 | 5.0 | 0.00 | 0.00 | 0.00 | 66 | 1020.4 |
| 20260503045103 | 61 | 221 | 3.0 | 5.0 | 0.00 | 0.00 | 0.00 | 66 | 1020.4 |
| 20260503045005 | 61 | 223 | 3.0 | 5.0 | 0.00 | 0.00 | 0.00 | 66 | 1020.4 |
| 20260503044903 | 61 | 224 | 3.0 | 5.0 | 0.00 | 0.00 | 0.00 | 66 | 1020.4 |
| 20260503044704 | 61 | 226 | 3.0 | 5.0 | 0.00 | 0.00 | 0.00 | 66 | 1020.4 |
| 20260503044603 | 61 | 226 | 3.0 | 5.0 | 0.00 | 0.00 | 0.00 | 66 | 1020.4 |
| 20260503044504 | 61 | 228 | 3.0 | 5.0 | 0.00 | 0.00 | 0.00 | 66 | 1020.4 |
| 20260503044403 | 61 | 228 | 3.0 | 5.0 | 0.00 | 0.00 | 0.00 | 66 | 1020.4 |
| 20260503044304 | 61 | 228 | 3.0 | 5.0 | 0.00 | 0.00 | 0.00 | 66 | 1020.4 |
| 20260503044204 | 61 | 229 | 3.0 | 5.0 | 0.00 | 0.00 | 0.00 | 66 | 1020.4 |
| 20260503044105 | 61 | 229 | 3.0 | 5.0 | 0.00 | 0.00 | 0.00 | 66 | 1020.5 |
| 20260503044004 | 61 | 230 | 3.0 | 5.0 | 0.00 | 0.00 | 0.00 | 66 | 1020.5 |
| 20260503043904 | 61 | 231 | 3.0 | 5.0 | 0.00 | 0.00 | 0.00 | 66 | 1020.5 |
| 20260503043804 | 61 | 231 | 3.0 | 5.0 | 0.00 | 0.00 | 0.00 | 66 | 1020.5 |
| 20260503043604 | 61 | 231 | 3.0 | 5.0 | 0.00 | 0.00 | 0.00 | 66 | 1020.5 |
| 20260503043504 | 61 | 231 | 3.0 | 4.0 | 0.00 | 0.00 | 0.00 | 66 | 1020.4 |
| 20260503043104 | 61 | 228 | 3.0 | 4.0 | 0.00 | 0.00 | 0.00 | 66 | 1020.4 |
| 20260503043004 | 62 | 226 | 3.0 | 6.0 | 0.00 | 0.00 | 0.00 | 66 | 1020.5 |
| 20260503042904 | 62 | 224 | 3.0 | 6.0 | 0.00 | 0.00 | 0.00 | 65 | 1020.5 |
| 20260503042803 | 62 | 223 | 3.0 | 6.0 | 0.00 | 0.00 | 0.00 | 65 | 1020.4 |
| 20260503042704 | 62 | 222 | 3.0 | 6.0 | 0.00 | 0.00 | 0.00 | 65 | 1020.4 |
| 20260503042603 | 62 | 220 | 3.0 | 6.0 | 0.00 | 0.00 | 0.00 | 65 | 1020.4 |
| 20260503042504 | 62 | 218 | 3.0 | 6.0 | 0.00 | 0.00 | 0.00 | 65 | 1020.3 |
| 20260503042404 | 62 | 217 | 3.0 | 6.0 | 0.00 | 0.00 | 0.00 | 64 | 1020.4 |
| 20260503042104 | 62 | 212 | 4.0 | 6.0 | 0.00 | 0.00 | 0.00 | 64 | 1020.4 |
| 20260503042003 | 62 | 211 | 4.0 | 6.0 | 0.00 | 0.00 | 0.00 | 64 | 1020.4 |
| 20260503041904 | 62 | 210 | 4.0 | 6.0 | 0.00 | 0.00 | 0.00 | 64 | 1020.4 |
| 20260503041803 | 62 | 208 | 4.0 | 6.0 | 0.00 | 0.00 | 0.00 | 64 | 1020.3 |
| 20260503041504 | 62 | 206 | 4.0 | 6.0 | 0.00 | 0.00 | 0.00 | 64 | 1020.3 |
| 20260503041404 | 62 | 204 | 4.0 | 6.0 | 0.00 | 0.00 | 0.00 | 64 | 1020.3 |
| 20260503041303 | 62 | 204 | 4.0 | 6.0 | 0.00 | 0.00 | 0.00 | 64 | 1020.3 |
| 20260503041203 | 62 | 203 | 4.0 | 6.0 | 0.00 | 0.00 | 0.00 | 64 | 1020.3 |
| 20260503041104 | 62 | 203 | 4.0 | 6.0 | 0.00 | 0.00 | 0.00 | 64 | 1020.3 |
| 20260503040804 | 62 | 202 | 3.0 | 6.0 | 0.00 | 0.00 | 0.00 | 64 | 1020.4 |
| 20260503040704 | 62 | 202 | 3.0 | 6.0 | 0.00 | 0.00 | 0.00 | 64 | 1020.3 |
| 20260503040603 | 62 | 201 | 3.0 | 6.0 | 0.00 | 0.00 | 0.00 | 64 | 1020.3 |
| 20260503040503 | 62 | 200 | 3.0 | 6.0 | 0.00 | 0.00 | 0.00 | 64 | 1020.3 |
| 20260503040404 | 62 | 199 | 3.0 | 5.0 | 0.00 | 0.00 | 0.00 | 64 | 1020.3 |
| 20260503040303 | 62 | 199 | 2.0 | 4.0 | 0.00 | 0.00 | 0.00 | 65 | 1020.3 |
| 20260503040204 | 62 | 198 | 2.0 | 4.0 | 0.00 | 0.00 | 0.00 | 65 | 1020.2 |
| 20260503040104 | 62 | 197 | 2.0 | 4.0 | 0.00 | 0.00 | 0.00 | 65 | 1020.3 |
| 20260503040003 | 62 | 196 | 2.0 | 4.0 | 0.00 | 0.00 | 0.00 | 65 | 1020.2 |
| 20260503035904 | 62 | 195 | 2.0 | 4.0 | 0.00 | 0.00 | 0.00 | 65 | 1020.3 |
| 20260503035803 | 62 | 194 | 2.0 | 4.0 | 0.00 | 0.00 | 0.00 | 65 | 1020.3 |
| 20260503035704 | 62 | 194 | 2.0 | 4.0 | 0.00 | 0.00 | 0.00 | 65 | 1020.2 |
| 20260503035504 | 62 | 194 | 2.0 | 4.0 | 0.00 | 0.00 | 0.00 | 65 | 1020.3 |
| 20260503035404 | 62 | 194 | 2.0 | 4.0 | 0.00 | 0.00 | 0.00 | 64 | 1020.3 |
| 20260503035305 | 62 | 194 | 2.0 | 4.0 | 0.00 | 0.00 | 0.00 | 64 | 1020.3 |
| 20260503035203 | 62 | 194 | 2.0 | 4.0 | 0.00 | 0.00 | 0.00 | 64 | 1020.3 |
| 20260503035104 | 62 | 195 | 2.0 | 4.0 | 0.00 | 0.00 | 0.00 | 64 | 1020.3 |
| 20260503035004 | 62 | 195 | 2.0 | 4.0 | 0.00 | 0.00 | 0.00 | 64 | 1020.3 |
| 20260503034903 | 62 | 195 | 2.0 | 4.0 | 0.00 | 0.00 | 0.00 | 64 | 1020.3 |
| 20260503034804 | 62 | 195 | 2.0 | 4.0 | 0.00 | 0.00 | 0.00 | 64 | 1020.3 |
| 20260503034703 | 62 | 195 | 2.0 | 4.0 | 0.00 | 0.00 | 0.00 | 64 | 1020.3 |
| 20260503034604 | 62 | 195 | 2.0 | 4.0 | 0.00 | 0.00 | 0.00 | 64 | 1020.3 |
| 20260503034504 | 62 | 195 | 2.0 | 4.0 | 0.00 | 0.00 | 0.00 | 64 | 1020.3 |
| 20260503034403 | 62 | 194 | 2.0 | 4.0 | 0.00 | 0.00 | 0.00 | 64 | 1020.3 |
| 20260503034303 | 62 | 195 | 2.0 | 4.0 | 0.00 | 0.00 | 0.00 | 64 | 1020.3 |
| 20260503034203 | 62 | 194 | 2.0 | 4.0 | 0.00 | 0.00 | 0.00 | 64 | 1020.3 |
| 20260503034105 | 62 | 194 | 2.0 | 3.0 | 0.00 | 0.00 | 0.00 | 64 | 1020.2 |
| 20260503034004 | 62 | 193 | 2.0 | 4.0 | 0.00 | 0.00 | 0.00 | 65 | 1020.2 |
| 20260503033803 | 62 | 192 | 2.0 | 4.0 | 0.00 | 0.00 | 0.00 | 65 | 1020.2 |
| 20260503033704 | 62 | 191 | 2.0 | 4.0 | 0.00 | 0.00 | 0.00 | 64 | 1020.2 |
| 20260503033504 | 62 | 189 | 2.0 | 4.0 | 0.00 | 0.00 | 0.00 | 65 | 1020.2 |
| 20260503033403 | 62 | 189 | 2.0 | 4.0 | 0.00 | 0.00 | 0.00 | 64 | 1020.2 |
| 20260503033304 | 62 | 187 | 2.0 | 4.0 | 0.00 | 0.00 | 0.00 | 65 | 1020.2 |
| 20260503033204 | 62 | 187 | 3.0 | 4.0 | 0.00 | 0.00 | 0.00 | 64 | 1020.3 |
| 20260503033104 | 62 | 186 | 3.0 | 4.0 | 0.00 | 0.00 | 0.00 | 64 | 1020.3 |
| 20260503033004 | 62 | 185 | 3.0 | 4.0 | 0.00 | 0.00 | 0.00 | 64 | 1020.2 |
| 20260503032903 | 62 | 184 | 3.0 | 4.0 | 0.00 | 0.00 | 0.00 | 64 | 1020.2 |
| 20260503032704 | 62 | 184 | 3.0 | 4.0 | 0.00 | 0.00 | 0.00 | 64 | 1020.1 |
| 20260503032603 | 62 | 183 | 3.0 | 4.0 | 0.00 | 0.00 | 0.00 | 64 | 1020.2 |
| 20260503032504 | 62 | 182 | 3.0 | 4.0 | 0.00 | 0.00 | 0.00 | 63 | 1020.2 |
| 20260503032305 | 62 | 181 | 3.0 | 4.0 | 0.00 | 0.00 | 0.00 | 63 | 1020.1 |
| 20260503032203 | 62 | 179 | 3.0 | 4.0 | 0.00 | 0.00 | 0.00 | 63 | 1020.1 |
| 20260503032104 | 62 | 178 | 3.0 | 4.0 | 0.00 | 0.00 | 0.00 | 63 | 1020.1 |
| 20260503032004 | 62 | 177 | 3.0 | 4.0 | 0.00 | 0.00 | 0.00 | 63 | 1020.1 |
| 20260503031903 | 62 | 176 | 3.0 | 4.0 | 0.00 | 0.00 | 0.00 | 63 | 1020.1 |
| 20260503031804 | 62 | 175 | 3.0 | 4.0 | 0.00 | 0.00 | 0.00 | 63 | 1020.1 |
| 20260503031703 | 62 | 174 | 3.0 | 4.0 | 0.00 | 0.00 | 0.00 | 63 | 1020.0 |
| 20260503031604 | 62 | 174 | 3.0 | 4.0 | 0.00 | 0.00 | 0.00 | 62 | 1020.0 |
| 20260503031503 | 62 | 174 | 2.0 | 4.0 | 0.00 | 0.00 | 0.00 | 62 | 1020.0 |
| 20260503031405 | 62 | 174 | 2.0 | 4.0 | 0.00 | 0.00 | 0.00 | 62 | 1020.0 |
| 20260503031303 | 62 | 173 | 2.0 | 4.0 | 0.00 | 0.00 | 0.00 | 62 | 1020.0 |
| 20260503031204 | 62 | 173 | 2.0 | 4.0 | 0.00 | 0.00 | 0.00 | 62 | 1019.9 |
| 20260503031104 | 63 | 172 | 2.0 | 4.0 | 0.00 | 0.00 | 0.00 | 62 | 1020.0 |
| 20260503030806 | 63 | 172 | 2.0 | 4.0 | 0.00 | 0.00 | 0.00 | 62 | 1019.9 |
| 20260503030705 | 63 | 173 | 2.0 | 4.0 | 0.00 | 0.00 | 0.00 | 62 | 1019.9 |
| 20260503030606 | 63 | 172 | 2.0 | 4.0 | 0.00 | 0.00 | 0.00 | 61 | 1019.9 |
| 20260503030506 | 63 | 172 | 2.0 | 4.0 | 0.00 | 0.00 | 0.00 | 61 | 1020.0 |
| 20260503030405 | 63 | 172 | 2.0 | 4.0 | 0.00 | 0.00 | 0.00 | 61 | 1020.0 |
| 20260503030306 | 63 | 174 | 2.0 | 4.0 | 0.00 | 0.00 | 0.00 | 61 | 1020.0 |
| 20260503030205 | 63 | 174 | 2.0 | 4.0 | 0.00 | 0.00 | 0.00 | 62 | 1020.0 |
| 20260503030106 | 63 | 175 | 2.0 | 4.0 | 0.00 | 0.00 | 0.00 | 62 | 1020.0 |
| 20260503030005 | 63 | 175 | 2.0 | 4.0 | 0.00 | 0.00 | 0.00 | 62 | 1020.0 |
| 20260503025906 | 63 | 175 | 2.0 | 4.0 | 0.00 | 0.00 | 0.00 | 62 | 1020.0 |
| 20260503025705 | 63 | 175 | 3.0 | 4.0 | 0.00 | 0.00 | 0.00 | 62 | 1020.0 |
| 20260503025605 | 63 | 175 | 3.0 | 4.0 | 0.00 | 0.00 | 0.00 | 62 | 1020.0 |
| 20260503025406 | 63 | 174 | 3.0 | 4.0 | 0.00 | 0.00 | 0.00 | 62 | 1020.0 |
| 20260503025305 | 63 | 173 | 3.0 | 4.0 | 0.00 | 0.00 | 0.00 | 61 | 1019.9 |
| 20260503025206 | 63 | 173 | 3.0 | 4.0 | 0.00 | 0.00 | 0.00 | 61 | 1020.0 |
| 20260503025105 | 63 | 174 | 3.0 | 4.0 | 0.00 | 0.00 | 0.00 | 61 | 1019.9 |
| 20260503025005 | 63 | 174 | 3.0 | 4.0 | 0.00 | 0.00 | 0.00 | 61 | 1019.8 |
| 20260503024906 | 63 | 174 | 3.0 | 4.0 | 0.00 | 0.00 | 0.00 | 61 | 1019.9 |
| 20260503024805 | 64 | 174 | 3.0 | 4.0 | 0.00 | 0.00 | 0.00 | 61 | 1019.9 |
| 20260503024706 | 64 | 173 | 2.0 | 4.0 | 0.00 | 0.00 | 0.00 | 61 | 1019.8 |
| 20260503024605 | 64 | 172 | 2.0 | 4.0 | 0.00 | 0.00 | 0.00 | 61 | 1019.8 |
| 20260503024506 | 64 | 172 | 2.0 | 4.0 | 0.00 | 0.00 | 0.00 | 61 | 1019.8 |
| 20260503024405 | 64 | 172 | 2.0 | 4.0 | 0.00 | 0.00 | 0.00 | 61 | 1019.7 |
| 20260503024306 | 64 | 171 | 2.0 | 4.0 | 0.00 | 0.00 | 0.00 | 60 | 1019.8 |
| 20260503024105 | 64 | 169 | 1.0 | 3.0 | 0.00 | 0.00 | 0.00 | 60 | 1019.7 |
| 20260503024005 | 64 | 167 | 1.0 | 3.0 | 0.00 | 0.00 | 0.00 | 59 | 1019.7 |
| 20260503023806 | 64 | 164 | 0.0 | 3.0 | 0.00 | 0.00 | 0.00 | 59 | 1019.7 |
| 20260503023706 | 64 | 163 | 0.0 | 3.0 | 0.00 | 0.00 | 0.00 | 59 | 1019.7 |
| 20260503023605 | 64 | 164 | 0.0 | 3.0 | 0.00 | 0.00 | 0.00 | 60 | 1019.7 |
| 20260503023506 | 64 | 166 | 0.0 | 1.0 | 0.00 | 0.00 | 0.00 | 59 | 1019.6 |
| 20260503023405 | 64 | 0 | 0.0 | 0.0 | 0.00 | 0.00 | 0.00 | 59 | 1019.6 |
| 20260503023105 | 64 | 0 | 0.0 | 0.0 | 0.00 | 0.00 | 0.00 | 59 | 1019.5 |
| 20260503023006 | 64 | 0 | 0.0 | 0.0 | 0.00 | 0.00 | 0.00 | 59 | 1019.5 |
| 20260503022905 | 64 | 0 | 0.0 | 0.0 | 0.00 | 0.00 | 0.00 | 59 | 1019.5 |
| 20260503022806 | 64 | 0 | 0.0 | 0.0 | 0.00 | 0.00 | 0.00 | 59 | 1019.5 |
| 20260503022606 | 64 | 0 | 0.0 | 0.0 | 0.00 | 0.00 | 0.00 | 60 | 1019.4 |
| 20260503022505 | 64 | 0 | 0.0 | 0.0 | 0.00 | 0.00 | 0.00 | 60 | 1019.4 |
| 20260503022406 | 64 | 0 | 0.0 | 0.0 | 0.00 | 0.00 | 0.00 | 59 | 1019.4 |
| 20260503022205 | 64 | 0 | 0.0 | 0.0 | 0.00 | 0.00 | 0.00 | 59 | 1019.3 |
| 20260503022106 | 64 | 0 | 0.0 | 0.0 | 0.00 | 0.00 | 0.00 | 59 | 1019.3 |
| 20260503022005 | 64 | 0 | 0.0 | 0.0 | 0.00 | 0.00 | 0.00 | 59 | 1019.4 |
| 20260503021905 | 64 | 0 | 0.0 | 0.0 | 0.00 | 0.00 | 0.00 | 58 | 1019.3 |
| 20260503021805 | 64 | 0 | 0.0 | 0.0 | 0.00 | 0.00 | 0.00 | 58 | 1019.3 |
| 20260503021706 | 64 | 0 | 0.0 | 0.0 | 0.00 | 0.00 | 0.00 | 58 | 1019.3 |
| 20260503021605 | 64 | 0 | 0.0 | 0.0 | 0.00 | 0.00 | 0.00 | 58 | 1019.3 |
| 20260503021506 | 64 | 0 | 0.0 | 0.0 | 0.00 | 0.00 | 0.00 | 59 | 1019.3 |
| 20260503021405 | 64 | 0 | 0.0 | 0.0 | 0.00 | 0.00 | 0.00 | 59 | 1019.3 |
| 20260503021306 | 64 | 0 | 0.0 | 0.0 | 0.00 | 0.00 | 0.00 | 59 | 1019.3 |
| 20260503021207 | 64 | 0 | 0.0 | 0.0 | 0.00 | 0.00 | 0.00 | 59 | 1019.3 |
| 20260503021105 | 64 | 0 | 0.0 | 0.0 | 0.00 | 0.00 | 0.00 | 58 | 1019.3 |
| 20260503021005 | 64 | 0 | 0.0 | 0.0 | 0.00 | 0.00 | 0.00 | 58 | 1019.3 |
| 20260503020906 | 64 | 0 | 0.0 | 0.0 | 0.00 | 0.00 | 0.00 | 58 | 1019.4 |
| 20260503020706 | 64 | 0 | 0.0 | 0.0 | 0.00 | 0.00 | 0.00 | 58 | 1019.4 |
| 20260503020605 | 65 | 0 | 0.0 | 0.0 | 0.00 | 0.00 | 0.00 | 58 | 1019.3 |
| 20260503020506 | 65 | 0 | 0.0 | 0.0 | 0.00 | 0.00 | 0.00 | 57 | 1019.3 |
| 20260503020406 | 65 | 0 | 0.0 | 0.0 | 0.00 | 0.00 | 0.00 | 57 | 1019.4 |
| 20260503020306 | 65 | 0 | 0.0 | 0.0 | 0.00 | 0.00 | 0.00 | 57 | 1019.3 |
| 20260503020205 | 65 | 0 | 0.0 | 0.0 | 0.00 | 0.00 | 0.00 | 57 | 1019.4 |
| 20260503020105 | 65 | 0 | 0.0 | 0.0 | 0.00 | 0.00 | 0.00 | 57 | 1019.3 |
| 20260503020006 | 65 | 0 | 0.0 | 0.0 | 0.00 | 0.00 | 0.00 | 56 | 1019.3 |
| 20260503015905 | 65 | 0 | 0.0 | 0.0 | 0.00 | 0.00 | 0.00 | 56 | 1019.3 |
| 20260503015806 | 66 | 0 | 0.0 | 0.0 | 0.00 | 0.00 | 0.00 | 56 | 1019.3 |
| 20260503015705 | 66 | 0 | 0.0 | 0.0 | 0.00 | 0.00 | 0.00 | 56 | 1019.3 |
| 20260503015606 | 66 | 0 | 0.0 | 0.0 | 0.00 | 0.00 | 0.00 | 56 | 1019.3 |
| 20260503015505 | 66 | 0 | 0.0 | 0.0 | 0.00 | 0.00 | 0.00 | 55 | 1019.3 |
| 20260503015405 | 66 | 0 | 0.0 | 0.0 | 0.00 | 0.00 | 0.00 | 55 | 1019.2 |
| 20260503015305 | 66 | 0 | 0.0 | 0.0 | 0.00 | 0.00 | 0.00 | 55 | 1019.2 |
| 20260503015205 | 66 | 0 | 0.0 | 0.0 | 0.00 | 0.00 | 0.00 | 55 | 1019.2 |
| 20260503015106 | 66 | 0 | 0.0 | 0.0 | 0.00 | 0.00 | 0.00 | 55 | 1019.1 |
| 20260503015005 | 66 | 0 | 0.0 | 0.0 | 0.00 | 0.00 | 0.00 | 54 | 1019.1 |
| 20260503014906 | 66 | 138 | 0.0 | 2.0 | 0.00 | 0.00 | 0.00 | 54 | 1019.2 |
| 20260503014705 | 66 | 137 | 0.0 | 2.0 | 0.00 | 0.00 | 0.00 | 53 | 1019.1 |
| 20260503014606 | 66 | 138 | 0.0 | 2.0 | 0.00 | 0.00 | 0.00 | 53 | 1019.2 |
| 20260503014505 | 66 | 138 | 1.0 | 2.0 | 0.00 | 0.00 | 0.00 | 53 | 1019.2 |
| 20260503014405 | 67 | 138 | 1.0 | 2.0 | 0.00 | 0.00 | 0.00 | 52 | 1019.2 |
| 20260503014305 | 67 | 137 | 1.0 | 3.0 | 0.00 | 0.00 | 0.00 | 52 | 1019.2 |
| 20260503014205 | 67 | 137 | 1.0 | 3.0 | 0.00 | 0.00 | 0.00 | 52 | 1019.2 |
| 20260503014106 | 67 | 137 | 1.0 | 3.0 | 0.00 | 0.00 | 0.00 | 52 | 1019.2 |
| 20260503014005 | 67 | 137 | 1.0 | 3.0 | 0.00 | 0.00 | 0.00 | 52 | 1019.2 |
| 20260503013805 | 67 | 137 | 1.0 | 3.0 | 0.00 | 0.00 | 0.00 | 52 | 1019.2 |
| 20260503013706 | 67 | 137 | 1.0 | 3.0 | 0.00 | 0.00 | 0.00 | 52 | 1019.2 |
| 20260503013605 | 67 | 137 | 1.0 | 3.0 | 0.00 | 0.00 | 0.00 | 52 | 1019.2 |
| 20260503013506 | 67 | 138 | 1.0 | 3.0 | 0.00 | 0.00 | 0.00 | 52 | 1019.1 |
| 20260503013405 | 67 | 137 | 1.0 | 3.0 | 0.00 | 0.00 | 0.00 | 52 | 1019.1 |
| 20260503013305 | 67 | 137 | 1.0 | 2.0 | 0.00 | 0.00 | 0.00 | 52 | 1019.1 |
| 20260503013205 | 67 | 136 | 1.0 | 2.0 | 0.00 | 0.00 | 0.00 | 52 | 1019.1 |
| 20260503013106 | 67 | 134 | 1.0 | 2.0 | 0.00 | 0.00 | 0.00 | 52 | 1019.1 |
| 20260503013005 | 67 | 133 | 1.0 | 2.0 | 0.00 | 0.00 | 0.00 | 52 | 1019.2 |
| 20260503012906 | 67 | 131 | 1.0 | 3.0 | 0.00 | 0.00 | 0.00 | 52 | 1019.1 |
| 20260503012805 | 67 | 129 | 1.0 | 3.0 | 0.00 | 0.00 | 0.00 | 52 | 1019.1 |
| 20260503012605 | 67 | 128 | 1.0 | 3.0 | 0.00 | 0.00 | 0.00 | 52 | 1019.0 |
| 20260503012506 | 67 | 127 | 1.0 | 3.0 | 0.00 | 0.00 | 0.00 | 52 | 1019.0 |
| 20260503012405 | 67 | 126 | 1.0 | 3.0 | 0.00 | 0.00 | 0.00 | 52 | 1019.0 |
| 20260503012306 | 67 | 125 | 1.0 | 3.0 | 0.00 | 0.00 | 0.00 | 52 | 1019.0 |
| 20260503012205 | 67 | 124 | 1.0 | 3.0 | 0.00 | 0.00 | 0.00 | 52 | 1018.9 |
| 20260503012105 | 67 | 123 | 2.0 | 3.0 | 0.00 | 0.00 | 0.00 | 52 | 1019.0 |
| 20260503012005 | 67 | 122 | 2.0 | 3.0 | 0.00 | 0.00 | 0.00 | 51 | 1018.9 |
| 20260503011905 | 68 | 122 | 2.0 | 3.0 | 0.00 | 0.00 | 0.00 | 51 | 1019.0 |
| 20260503011807 | 68 | 122 | 2.0 | 3.0 | 0.00 | 0.00 | 0.00 | 51 | 1018.9 |
| 20260503011605 | 68 | 122 | 2.0 | 4.0 | 0.00 | 0.00 | 0.00 | 51 | 1018.9 |
| 20260503011507 | 68 | 121 | 2.0 | 4.0 | 0.00 | 0.00 | 0.00 | 51 | 1018.9 |
| 20260503011305 | 68 | 123 | 2.0 | 4.0 | 0.00 | 0.00 | 0.00 | 51 | 1018.9 |
| 20260503011205 | 68 | 123 | 2.0 | 4.0 | 0.00 | 0.00 | 0.00 | 51 | 1018.9 |
| 20260503011105 | 68 | 123 | 2.0 | 4.0 | 0.00 | 0.00 | 0.00 | 51 | 1018.8 |
| 20260503010905 | 68 | 122 | 2.0 | 4.0 | 0.00 | 0.00 | 0.00 | 50 | 1018.9 |
| 20260503010805 | 68 | 123 | 2.0 | 4.0 | 0.00 | 0.00 | 0.00 | 50 | 1018.9 |
| 20260503010605 | 68 | 122 | 1.0 | 4.0 | 0.00 | 0.00 | 0.00 | 50 | 1018.9 |
| 20260503010506 | 69 | 123 | 1.0 | 4.0 | 0.00 | 0.00 | 0.00 | 50 | 1019.0 |
| 20260503010405 | 69 | 121 | 1.0 | 4.0 | 0.00 | 0.00 | 0.00 | 49 | 1018.9 |
| 20260503010105 | 69 | 113 | 1.0 | 5.0 | 0.00 | 0.00 | 0.00 | 49 | 1018.9 |
| 20260503005905 | 69 | 109 | 2.0 | 5.0 | 0.00 | 0.00 | 0.00 | 48 | 1018.8 |
| 20260503005805 | 69 | 106 | 2.0 | 5.0 | 0.00 | 0.00 | 0.00 | 48 | 1018.8 |
| 20260503005705 | 69 | 103 | 3.0 | 6.0 | 0.00 | 0.00 | 0.00 | 48 | 1018.8 |
| 20260503005605 | 69 | 99 | 3.0 | 6.0 | 0.00 | 0.00 | 0.00 | 48 | 1018.8 |
| 20260503005505 | 70 | 97 | 3.0 | 6.0 | 0.00 | 0.00 | 0.00 | 47 | 1018.8 |
| 20260503005405 | 70 | 95 | 4.0 | 6.0 | 0.00 | 0.00 | 0.00 | 47 | 1018.8 |
| 20260503005305 | 70 | 94 | 4.0 | 6.0 | 0.00 | 0.00 | 0.00 | 47 | 1018.8 |
| 20260503005206 | 70 | 93 | 4.0 | 6.0 | 0.00 | 0.00 | 0.00 | 46 | 1018.7 |
| 20260503005105 | 70 | 90 | 4.0 | 6.0 | 0.00 | 0.00 | 0.00 | 46 | 1018.8 |
| 20260503005006 | 70 | 88 | 4.0 | 6.0 | 0.00 | 0.00 | 0.00 | 46 | 1018.7 |
| 20260503004905 | 70 | 86 | 4.0 | 6.0 | 0.00 | 0.00 | 0.00 | 45 | 1018.7 |
| 20260503004805 | 70 | 85 | 3.0 | 6.0 | 0.00 | 0.00 | 0.00 | 45 | 1018.7 |
| 20260503004706 | 70 | 83 | 3.0 | 6.0 | 0.00 | 0.00 | 0.00 | 45 | 1018.6 |
| 20260503004605 | 70 | 82 | 3.0 | 6.0 | 0.00 | 0.00 | 0.00 | 45 | 1018.6 |
| 20260503004505 | 70 | 81 | 3.0 | 6.0 | 0.00 | 0.00 | 0.00 | 44 | 1018.6 |
| 20260503004405 | 71 | 78 | 3.0 | 7.0 | 0.00 | 0.00 | 0.00 | 43 | 1018.6 |
| 20260503004306 | 71 | 74 | 3.0 | 7.0 | 0.00 | 0.00 | 0.00 | 43 | 1018.5 |
| 20260503004105 | 71 | 70 | 3.0 | 7.0 | 0.00 | 0.00 | 0.00 | 42 | 1018.5 |
| 20260503003906 | 72 | 65 | 3.0 | 7.0 | 0.00 | 0.00 | 0.00 | 42 | 1018.6 |
| 20260503003805 | 72 | 62 | 3.0 | 7.0 | 0.00 | 0.00 | 0.00 | 41 | 1018.6 |
| 20260503003705 | 72 | 61 | 3.0 | 7.0 | 0.00 | 0.00 | 0.00 | 40 | 1018.7 |
| 20260503003606 | 72 | 60 | 3.0 | 7.0 | 0.00 | 0.00 | 0.00 | 40 | 1018.7 |
| 20260503003505 | 72 | 57 | 2.0 | 7.0 | 0.00 | 0.00 | 0.00 | 40 | 1018.6 |
| 20260503003405 | 72 | 55 | 2.0 | 4.0 | 0.00 | 0.00 | 0.00 | 40 | 1018.7 |
| 20260503003106 | 72 | 61 | 2.0 | 3.0 | 0.00 | 0.00 | 0.00 | 40 | 1018.6 |
| 20260503003005 | 72 | 66 | 2.0 | 3.0 | 0.00 | 0.00 | 0.00 | 40 | 1018.6 |
| 20260503002905 | 72 | 72 | 2.0 | 4.0 | 0.00 | 0.00 | 0.00 | 41 | 1018.7 |
| 20260503002705 | 72 | 84 | 2.0 | 5.0 | 0.00 | 0.00 | 0.00 | 42 | 1018.7 |
| 20260503002605 | 72 | 88 | 2.0 | 5.0 | 0.00 | 0.00 | 0.00 | 42 | 1018.8 |
| 20260503002505 | 72 | 90 | 2.0 | 5.0 | 0.00 | 0.00 | 0.00 | 41 | 1018.7 |
| 20260503002405 | 72 | 94 | 3.0 | 5.0 | 0.00 | 0.00 | 0.00 | 41 | 1018.7 |
| 20260503002305 | 72 | 97 | 3.0 | 5.0 | 0.00 | 0.00 | 0.00 | 41 | 1018.7 |
| 20260503002105 | 73 | 97 | 3.0 | 5.0 | 0.00 | 0.00 | 0.00 | 40 | 1018.7 |
| 20260503002005 | 73 | 96 | 3.0 | 5.0 | 0.00 | 0.00 | 0.00 | 40 | 1018.7 |
| 20260503001706 | 73 | 90 | 3.0 | 4.0 | 0.00 | 0.00 | 0.00 | 39 | 1018.6 |
| 20260503001605 | 73 | 90 | 3.0 | 7.0 | 0.00 | 0.00 | 0.00 | 38 | 1018.6 |
| 20260503001506 | 73 | 90 | 3.0 | 7.0 | 0.00 | 0.00 | 0.00 | 38 | 1018.6 |
| 20260503001306 | 73 | 83 | 3.0 | 7.0 | 0.00 | 0.00 | 0.00 | 37 | 1018.6 |
| 20260503001205 | 73 | 81 | 3.0 | 7.0 | 0.00 | 0.00 | 0.00 | 37 | 1018.6 |
| 20260503001105 | 73 | 77 | 4.0 | 8.0 | 0.00 | 0.00 | 0.00 | 37 | 1018.6 |
| 20260503001006 | 73 | 74 | 4.0 | 8.0 | 0.00 | 0.00 | 0.00 | 37 | 1018.6 |
| 20260503000905 | 73 | 68 | 3.0 | 8.0 | 0.00 | 0.00 | 0.00 | 37 | 1018.6 |
| 20260503000805 | 73 | 64 | 4.0 | 8.0 | 0.00 | 0.00 | 0.00 | 36 | 1018.6 |
| 20260503000705 | 73 | 57 | 3.0 | 8.0 | 0.00 | 0.00 | 0.00 | 37 | 1018.6 |
| 20260503000606 | 74 | 51 | 3.0 | 8.0 | 0.00 | 0.00 | 0.00 | 37 | 1018.6 |
| 20260503000505 | 74 | 46 | 3.0 | 8.0 | 0.00 | 0.00 | 0.00 | 36 | 1018.6 |
| 20260503000407 | 74 | 43 | 3.0 | 8.0 | 0.00 | 0.00 | 0.00 | 37 | 1018.6 |
| 20260503000305 | 74 | 40 | 3.0 | 8.0 | 0.00 | 0.00 | 0.00 | 36 | 1018.6 |
| 20260503000205 | 74 | 40 | 3.0 | 8.0 | 0.00 | 0.00 | 0.00 | 36 | 1018.6 |
| 20260503000105 | 74 | 38 | 3.0 | 7.0 | 0.00 | 0.00 | 0.00 | 36 | 1018.6 |
| 20260502235906 | 74 | 43 | 4.0 | 7.0 | 0.00 | 0.00 | 0.00 | 36 | 1018.5 |
| 20260502235805 | 74 | 44 | 4.0 | 9.0 | 0.00 | 0.00 | 0.00 | 36 | 1018.5 |
| 20260502235705 | 74 | 45 | 4.0 | 9.0 | 0.00 | 0.00 | 0.00 | 36 | 1018.6 |
| 20260502235506 | 74 | 47 | 4.0 | 9.0 | 0.00 | 0.00 | 0.00 | 35 | 1018.5 |
| 20260502235406 | 74 | 47 | 4.0 | 9.0 | 0.00 | 0.00 | 0.00 | 37 | 1018.5 |
| 20260502235305 | 74 | 47 | 4.0 | 9.0 | 0.00 | 0.00 | 0.00 | 36 | 1018.5 |
| 20260502235205 | 74 | 44 | 4.0 | 9.0 | 0.00 | 0.00 | 0.00 | 36 | 1018.5 |
| 20260502235105 | 74 | 43 | 4.0 | 9.0 | 0.00 | 0.00 | 0.00 | 36 | 1018.5 |
| 20260502234905 | 74 | 40 | 4.0 | 9.0 | 0.00 | 0.00 | 0.00 | 36 | 1018.6 |
| 20260502234706 | 74 | 36 | 4.0 | 9.0 | 0.00 | 0.00 | 0.00 | 35 | 1018.6 |
| 20260502234605 | 74 | 35 | 4.0 | 9.0 | 0.00 | 0.00 | 0.00 | 35 | 1018.5 |
| 20260502234405 | 75 | 29 | 4.0 | 11.0 | 0.00 | 0.00 | 0.00 | 35 | 1018.6 |
| 20260502234305 | 75 | 29 | 4.0 | 11.0 | 0.00 | 0.00 | 0.00 | 35 | 1018.6 |
| 20260502234204 | 75 | 28 | 4.0 | 11.0 | 0.00 | 0.00 | 0.00 | 35 | 1018.6 |
| 20260502234005 | 75 | 26 | 4.0 | 11.0 | 0.00 | 0.00 | 0.00 | 35 | 1018.6 |
| 20260502233905 | 75 | 24 | 4.0 | 11.0 | 0.00 | 0.00 | 0.00 | 35 | 1018.6 |
| 20260502233805 | 75 | 25 | 4.0 | 11.0 | 0.00 | 0.00 | 0.00 | 34 | 1018.6 |
| 20260502233605 | 75 | 26 | 3.0 | 11.0 | 0.00 | 0.00 | 0.00 | 34 | 1018.6 |
| 20260502233305 | 75 | 7 | 3.0 | 8.0 | 0.00 | 0.00 | 0.00 | 35 | 1018.6 |
| 20260502233205 | 75 | 3 | 3.0 | 8.0 | 0.00 | 0.00 | 0.00 | 36 | 1018.6 |
| 20260502233106 | 75 | 357 | 3.0 | 8.0 | 0.00 | 0.00 | 0.00 | 35 | 1018.6 |
| 20260502233005 | 75 | 358 | 3.0 | 8.0 | 0.00 | 0.00 | 0.00 | 33 | 1018.6 |
| 20260502232906 | 75 | 358 | 3.0 | 8.0 | 0.00 | 0.00 | 0.00 | 34 | 1018.6 |
| 20260502232805 | 75 | 358 | 3.0 | 8.0 | 0.00 | 0.00 | 0.00 | 33 | 1018.6 |
| 20260502232706 | 75 | 359 | 3.0 | 9.0 | 0.00 | 0.00 | 0.00 | 33 | 1018.6 |
| 20260502232506 | 76 | 6 | 3.0 | 9.0 | 0.00 | 0.00 | 0.00 | 33 | 1018.6 |
| 20260502232405 | 75 | 15 | 3.0 | 9.0 | 0.00 | 0.00 | 0.00 | 34 | 1018.6 |
| 20260502232306 | 75 | 35 | 3.0 | 9.0 | 0.00 | 0.00 | 0.00 | 34 | 1018.5 |
| 20260502232205 | 75 | 46 | 3.0 | 9.0 | 0.00 | 0.00 | 0.00 | 34 | 1018.6 |
| 20260502232106 | 75 | 55 | 4.0 | 9.0 | 0.00 | 0.00 | 0.00 | 34 | 1018.6 |
| 20260502232005 | 75 | 58 | 4.0 | 10.0 | 0.00 | 0.00 | 0.00 | 34 | 1018.6 |
| 20260502231905 | 75 | 58 | 4.0 | 10.0 | 0.00 | 0.00 | 0.00 | 34 | 1018.6 |
| 20260502231805 | 75 | 58 | 4.0 | 10.0 | 0.00 | 0.00 | 0.00 | 35 | 1018.6 |
| 20260502231604 | 75 | 57 | 4.0 | 10.0 | 0.00 | 0.00 | 0.00 | 35 | 1018.6 |
| 20260502231405 | 75 | 47 | 5.0 | 10.0 | 0.00 | 0.00 | 0.00 | 35 | 1018.6 |
| 20260502231306 | 75 | 42 | 5.0 | 11.0 | 0.00 | 0.00 | 0.00 | 35 | 1018.6 |
| 20260502231205 | 75 | 40 | 5.0 | 11.0 | 0.00 | 0.00 | 0.00 | 34 | 1018.6 |
| 20260502231106 | 75 | 39 | 5.0 | 11.0 | 0.00 | 0.00 | 0.00 | 34 | 1018.6 |
| 20260502231005 | 75 | 36 | 5.0 | 11.0 | 0.00 | 0.00 | 0.00 | 33 | 1018.6 |
| 20260502230905 | 75 | 34 | 4.0 | 11.0 | 0.00 | 0.00 | 0.00 | 34 | 1018.6 |
| 20260502230805 | 76 | 34 | 4.0 | 11.0 | 0.00 | 0.00 | 0.00 | 34 | 1018.6 |
| 20260502230705 | 76 | 32 | 5.0 | 11.0 | 0.00 | 0.00 | 0.00 | 34 | 1018.7 |
| 20260502230605 | 75 | 30 | 5.0 | 11.0 | 0.00 | 0.00 | 0.00 | 34 | 1018.6 |
| 20260502230505 | 76 | 27 | 4.0 | 11.0 | 0.00 | 0.00 | 0.00 | 34 | 1018.6 |
| 20260502230306 | 76 | 32 | 4.0 | 11.0 | 0.00 | 0.00 | 0.00 | 35 | 1018.6 |
| 20260502230205 | 76 | 32 | 4.0 | 9.0 | 0.00 | 0.00 | 0.00 | 34 | 1018.6 |
| 20260502230005 | 76 | 27 | 4.0 | 9.0 | 0.00 | 0.00 | 0.00 | 34 | 1018.5 |
| 20260502225905 | 75 | 27 | 4.0 | 9.0 | 0.00 | 0.00 | 0.00 | 34 | 1018.5 |
| 20260502225805 | 75 | 26 | 4.0 | 9.0 | 0.00 | 0.00 | 0.00 | 36 | 1018.5 |
| 20260502225705 | 75 | 25 | 4.0 | 9.0 | 0.00 | 0.00 | 0.00 | 35 | 1018.5 |
| 20260502225605 | 75 | 25 | 4.0 | 10.0 | 0.00 | 0.00 | 0.00 | 36 | 1018.5 |
| 20260502225505 | 75 | 23 | 4.0 | 10.0 | 0.00 | 0.00 | 0.00 | 34 | 1018.5 |
| 20260502225405 | 76 | 20 | 4.0 | 10.0 | 0.00 | 0.00 | 0.00 | 35 | 1018.5 |
| 20260502225305 | 76 | 16 | 3.0 | 10.0 | 0.00 | 0.00 | 0.00 | 36 | 1018.5 |
| 20260502225205 | 76 | 13 | 3.0 | 10.0 | 0.00 | 0.00 | 0.00 | 36 | 1018.4 |
| 20260502225105 | 75 | 10 | 3.0 | 10.0 | 0.00 | 0.00 | 0.00 | 36 | 1018.4 |
| 20260502225005 | 75 | 12 | 3.0 | 10.0 | 0.00 | 0.00 | 0.00 | 35 | 1018.5 |
| 20260502224905 | 76 | 14 | 3.0 | 10.0 | 0.00 | 0.00 | 0.00 | 34 | 1018.5 |
| 20260502224805 | 76 | 15 | 4.0 | 10.0 | 0.00 | 0.00 | 0.00 | 34 | 1018.5 |
| 20260502224705 | 76 | 16 | 4.0 | 11.0 | 0.00 | 0.00 | 0.00 | 34 | 1018.5 |
| 20260502224605 | 76 | 15 | 4.0 | 11.0 | 0.00 | 0.00 | 0.00 | 36 | 1018.5 |
| 20260502224506 | 76 | 15 | 4.0 | 11.0 | 0.00 | 0.00 | 0.00 | 35 | 1018.5 |
| 20260502224405 | 76 | 15 | 4.0 | 11.0 | 0.00 | 0.00 | 0.00 | 36 | 1018.5 |
| 20260502224305 | 76 | 15 | 5.0 | 11.0 | 0.00 | 0.00 | 0.00 | 35 | 1018.5 |
| 20260502224205 | 76 | 13 | 5.0 | 11.0 | 0.00 | 0.00 | 0.00 | 35 | 1018.5 |
| 20260502224105 | 76 | 14 | 5.0 | 11.0 | 0.00 | 0.00 | 0.00 | 35 | 1018.5 |
| 20260502223906 | 76 | 12 | 5.0 | 11.0 | 0.00 | 0.00 | 0.00 | 34 | 1018.5 |
| 20260502223805 | 76 | 12 | 4.0 | 11.0 | 0.00 | 0.00 | 0.00 | 35 | 1018.5 |
| 20260502223707 | 76 | 11 | 4.0 | 11.0 | 0.00 | 0.00 | 0.00 | 35 | 1018.5 |
| 20260502223605 | 77 | 11 | 5.0 | 11.0 | 0.00 | 0.00 | 0.00 | 35 | 1018.6 |
| 20260502223505 | 77 | 11 | 5.0 | 12.0 | 0.00 | 0.00 | 0.00 | 33 | 1018.5 |
| 20260502223404 | 77 | 11 | 5.0 | 12.0 | 0.00 | 0.00 | 0.00 | 34 | 1018.6 |
| 20260502223204 | 77 | 10 | 4.0 | 12.0 | 0.00 | 0.00 | 0.00 | 36 | 1018.6 |
| 20260502223105 | 77 | 8 | 4.0 | 12.0 | 0.00 | 0.00 | 0.00 | 33 | 1018.6 |
| 20260502223007 | 77 | 7 | 4.0 | 12.0 | 0.00 | 0.00 | 0.00 | 33 | 1018.6 |
| 20260502222905 | 77 | 5 | 5.0 | 12.0 | 0.00 | 0.00 | 0.00 | 33 | 1018.6 |
| 20260502222805 | 77 | 4 | 5.0 | 12.0 | 0.00 | 0.00 | 0.00 | 33 | 1018.6 |
| 20260502222705 | 77 | 359 | 5.0 | 12.0 | 0.00 | 0.00 | 0.00 | 35 | 1018.6 |
| 20260502222605 | 77 | 358 | 4.0 | 12.0 | 0.00 | 0.00 | 0.00 | 34 | 1018.6 |
| 20260502222405 | 77 | 352 | 5.0 | 10.0 | 0.00 | 0.00 | 0.00 | 35 | 1018.7 |
| 20260502222305 | 77 | 353 | 5.0 | 10.0 | 0.00 | 0.00 | 0.00 | 36 | 1018.7 |
| 20260502222205 | 77 | 353 | 5.0 | 10.0 | 0.00 | 0.00 | 0.00 | 35 | 1018.7 |
| 20260502222105 | 77 | 352 | 6.0 | 10.0 | 0.00 | 0.00 | 0.00 | 34 | 1018.7 |
| 20260502221905 | 77 | 348 | 6.0 | 10.0 | 0.00 | 0.00 | 0.00 | 34 | 1018.7 |
| 20260502221705 | 77 | 342 | 6.0 | 12.0 | 0.00 | 0.00 | 0.00 | 35 | 1018.7 |
| 20260502221604 | 77 | 341 | 6.0 | 12.0 | 0.00 | 0.00 | 0.00 | 34 | 1018.7 |
| 20260502221406 | 77 | 335 | 7.0 | 13.0 | 0.00 | 0.00 | 0.00 | 34 | 1018.7 |
| 20260502221305 | 77 | 330 | 8.0 | 13.0 | 0.00 | 0.00 | 0.00 | 34 | 1018.7 |
| 20260502221204 | 77 | 328 | 7.0 | 13.0 | 0.00 | 0.00 | 0.00 | 36 | 1018.8 |
| 20260502221105 | 77 | 328 | 7.0 | 13.0 | 0.00 | 0.00 | 0.00 | 35 | 1018.7 |
| 20260502221005 | 77 | 327 | 6.0 | 13.0 | 0.00 | 0.00 | 0.00 | 35 | 1018.8 |
| 20260502220805 | 77 | 324 | 5.0 | 13.0 | 0.00 | 0.00 | 0.00 | 35 | 1018.7 |
| 20260502220705 | 77 | 321 | 5.0 | 13.0 | 0.00 | 0.00 | 0.00 | 35 | 1018.6 |
| 20260502220604 | 77 | 323 | 5.0 | 13.0 | 0.00 | 0.00 | 0.00 | 35 | 1018.8 |
| 20260502220506 | 77 | 325 | 4.0 | 13.0 | 0.00 | 0.00 | 0.00 | 35 | 1018.7 |
| 20260502220305 | 76 | 331 | 3.0 | 11.0 | 0.00 | 0.00 | 0.00 | 36 | 1018.7 |
| 20260502220106 | 76 | 330 | 4.0 | 11.0 | 0.00 | 0.00 | 0.00 | 36 | 1018.7 |
| 20260502220005 | 76 | 326 | 4.0 | 11.0 | 0.00 | 0.00 | 0.00 | 36 | 1018.6 |
| 20260502215905 | 76 | 329 | 4.0 | 11.0 | 0.00 | 0.00 | 0.00 | 36 | 1018.7 |
| 20260502215705 | 76 | 331 | 4.0 | 11.0 | 0.00 | 0.00 | 0.00 | 36 | 1018.7 |
| 20260502215605 | 76 | 327 | 5.0 | 11.0 | 0.00 | 0.00 | 0.00 | 35 | 1018.7 |
| 20260502215505 | 76 | 326 | 5.0 | 11.0 | 0.00 | 0.00 | 0.00 | 33 | 1018.7 |
| 20260502215405 | 76 | 328 | 5.0 | 11.0 | 0.00 | 0.00 | 0.00 | 36 | 1018.7 |
| 20260502215305 | 76 | 328 | 5.0 | 11.0 | 0.00 | 0.00 | 0.00 | 37 | 1018.7 |
| 20260502215205 | 76 | 326 | 4.0 | 9.0 | 0.00 | 0.00 | 0.00 | 35 | 1018.7 |
| 20260502215005 | 77 | 334 | 5.0 | 9.0 | 0.00 | 0.00 | 0.00 | 33 | 1018.7 |
| 20260502214905 | 77 | 340 | 5.0 | 10.0 | 0.00 | 0.00 | 0.00 | 33 | 1018.8 |
| 20260502214805 | 77 | 344 | 6.0 | 13.0 | 0.00 | 0.00 | 0.00 | 33 | 1018.8 |
| 20260502214705 | 77 | 349 | 6.0 | 13.0 | 0.00 | 0.00 | 0.00 | 33 | 1018.8 |
| 20260502214405 | 77 | 1 | 5.0 | 13.0 | 0.00 | 0.00 | 0.00 | 34 | 1018.9 |
| 20260502214205 | 76 | 10 | 6.0 | 13.0 | 0.00 | 0.00 | 0.00 | 35 | 1018.9 |
| 20260502214105 | 76 | 12 | 6.0 | 13.0 | 0.00 | 0.00 | 0.00 | 34 | 1018.9 |
| 20260502213905 | 76 | 20 | 5.0 | 13.0 | 0.00 | 0.00 | 0.00 | 35 | 1018.9 |
| 20260502213805 | 76 | 26 | 5.0 | 11.0 | 0.00 | 0.00 | 0.00 | 35 | 1018.9 |
| 20260502213705 | 76 | 30 | 4.0 | 11.0 | 0.00 | 0.00 | 0.00 | 35 | 1018.9 |
| 20260502213505 | 76 | 29 | 4.0 | 11.0 | 0.00 | 0.00 | 0.00 | 35 | 1018.9 |
| 20260502213305 | 76 | 26 | 4.0 | 11.0 | 0.00 | 0.00 | 0.00 | 37 | 1018.9 |
| 20260502213205 | 76 | 18 | 3.0 | 11.0 | 0.00 | 0.00 | 0.00 | 37 | 1019.0 |
| 20260502213005 | 76 | 354 | 3.0 | 8.0 | 0.00 | 0.00 | 0.00 | 35 | 1018.9 |
| 20260502212906 | 77 | 344 | 3.0 | 8.0 | 0.00 | 0.00 | 0.00 | 36 | 1019.1 |
| 20260502212806 | 77 | 340 | 3.0 | 8.0 | 0.00 | 0.00 | 0.00 | 38 | 1019.0 |
| 20260502212705 | 77 | 342 | 4.0 | 8.0 | 0.00 | 0.00 | 0.00 | 38 | 1019.0 |
| 20260502212605 | 77 | 359 | 4.0 | 15.0 | 0.00 | 0.00 | 0.00 | 38 | 1019.0 |
| 20260502212405 | 77 | 15 | 4.0 | 15.0 | 0.00 | 0.00 | 0.00 | 35 | 1019.1 |
| 20260502212305 | 77 | 23 | 4.0 | 15.0 | 0.00 | 0.00 | 0.00 | 35 | 1019.1 |
| 20260502212107 | 77 | 59 | 3.0 | 15.0 | 0.00 | 0.00 | 0.00 | 37 | 1019.1 |
| 20260502211906 | 76 | 77 | 4.0 | 15.0 | 0.00 | 0.00 | 0.00 | 40 | 1019.2 |
| 20260502211805 | 76 | 78 | 3.0 | 15.0 | 0.00 | 0.00 | 0.00 | 40 | 1019.2 |
| 20260502211705 | 75 | 74 | 3.0 | 15.0 | 0.00 | 0.00 | 0.00 | 40 | 1019.2 |
| 20260502211605 | 75 | 75 | 3.0 | 11.0 | 0.00 | 0.00 | 0.00 | 40 | 1019.2 |
| 20260502211404 | 75 | 67 | 3.0 | 11.0 | 0.00 | 0.00 | 0.00 | 35 | 1019.2 |
| 20260502211305 | 75 | 66 | 3.0 | 11.0 | 0.00 | 0.00 | 0.00 | 38 | 1019.2 |
| 20260502211205 | 76 | 62 | 4.0 | 11.0 | 0.00 | 0.00 | 0.00 | 38 | 1019.2 |
| 20260502211105 | 76 | 58 | 3.0 | 11.0 | 0.00 | 0.00 | 0.00 | 39 | 1019.3 |
| 20260502211005 | 76 | 53 | 3.0 | 11.0 | 0.00 | 0.00 | 0.00 | 36 | 1019.3 |
| 20260502210906 | 76 | 46 | 3.0 | 11.0 | 0.00 | 0.00 | 0.00 | 37 | 1019.3 |
| 20260502210705 | 77 | 36 | 3.0 | 11.0 | 0.00 | 0.00 | 0.00 | 38 | 1019.4 |
| 20260502210605 | 76 | 30 | 3.0 | 9.0 | 0.00 | 0.00 | 0.00 | 38 | 1019.4 |
| 20260502210506 | 76 | 31 | 3.0 | 8.0 | 0.00 | 0.00 | 0.00 | 38 | 1019.5 |
| 20260502210405 | 76 | 28 | 3.0 | 8.0 | 0.00 | 0.00 | 0.00 | 38 | 1019.4 |
| 20260502210105 | 77 | 13 | 4.0 | 8.0 | 0.00 | 0.00 | 0.00 | 36 | 1019.5 |
| 20260502210005 | 77 | 12 | 4.0 | 8.0 | 0.00 | 0.00 | 0.00 | 36 | 1019.4 |
| 20260502205905 | 77 | 13 | 4.0 | 9.0 | 0.00 | 0.00 | 0.00 | 38 | 1019.5 |
| 20260502205805 | 77 | 16 | 5.0 | 9.0 | 0.00 | 0.00 | 0.00 | 38 | 1019.6 |
| 20260502205705 | 76 | 22 | 5.0 | 12.0 | 0.00 | 0.00 | 0.00 | 38 | 1019.6 |
| 20260502205605 | 76 | 27 | 5.0 | 12.0 | 0.00 | 0.00 | 0.00 | 38 | 1019.5 |
| 20260502205506 | 76 | 26 | 5.0 | 12.0 | 0.00 | 0.00 | 0.00 | 35 | 1019.5 |
| 20260502205405 | 76 | 30 | 5.0 | 12.0 | 0.00 | 0.00 | 0.00 | 37 | 1019.5 |
| 20260502205306 | 76 | 41 | 5.0 | 12.0 | 0.00 | 0.00 | 0.00 | 38 | 1019.5 |
| 20260502205105 | 76 | 48 | 5.0 | 12.0 | 0.00 | 0.00 | 0.00 | 36 | 1019.5 |
| 20260502205005 | 76 | 54 | 5.0 | 12.0 | 0.00 | 0.00 | 0.00 | 36 | 1019.5 |
| 20260502204904 | 76 | 61 | 6.0 | 12.0 | 0.00 | 0.00 | 0.00 | 36 | 1019.5 |
| 20260502204805 | 76 | 63 | 6.0 | 12.0 | 0.00 | 0.00 | 0.00 | 38 | 1019.6 |
| 20260502204707 | 76 | 67 | 6.0 | 12.0 | 0.00 | 0.00 | 0.00 | 41 | 1019.6 |
| 20260502204605 | 76 | 68 | 7.0 | 12.0 | 0.00 | 0.00 | 0.00 | 40 | 1019.6 |
| 20260502204505 | 76 | 69 | 7.0 | 12.0 | 0.00 | 0.00 | 0.00 | 39 | 1019.7 |
| 20260502204406 | 76 | 66 | 7.0 | 12.0 | 0.00 | 0.00 | 0.00 | 38 | 1019.6 |
| 20260502204305 | 76 | 63 | 7.0 | 12.0 | 0.00 | 0.00 | 0.00 | 41 | 1019.6 |
| 20260502204205 | 76 | 63 | 7.0 | 12.0 | 0.00 | 0.00 | 0.00 | 41 | 1019.7 |
| 20260502204004 | 75 | 64 | 7.0 | 12.0 | 0.00 | 0.00 | 0.00 | 40 | 1019.7 |
| 20260502203905 | 76 | 63 | 6.0 | 12.0 | 0.00 | 0.00 | 0.00 | 38 | 1019.6 |
| 20260502203804 | 76 | 64 | 5.0 | 12.0 | 0.00 | 0.00 | 0.00 | 38 | 1019.7 |
| 20260502203705 | 76 | 62 | 5.0 | 12.0 | 0.00 | 0.00 | 0.00 | 40 | 1019.6 |
| 20260502203605 | 76 | 62 | 5.0 | 12.0 | 0.00 | 0.00 | 0.00 | 40 | 1019.7 |
| 20260502203505 | 76 | 63 | 5.0 | 12.0 | 0.00 | 0.00 | 0.00 | 40 | 1019.7 |
| 20260502203405 | 76 | 65 | 4.0 | 12.0 | 0.00 | 0.00 | 0.00 | 37 | 1019.7 |
| 20260502203304 | 76 | 67 | 4.0 | 12.0 | 0.00 | 0.00 | 0.00 | 38 | 1019.7 |
| 20260502203206 | 76 | 68 | 4.0 | 12.0 | 0.00 | 0.00 | 0.00 | 39 | 1019.7 |
| 20260502203105 | 75 | 74 | 3.0 | 11.0 | 0.00 | 0.00 | 0.00 | 36 | 1019.7 |
| 20260502203005 | 75 | 73 | 4.0 | 11.0 | 0.00 | 0.00 | 0.00 | 35 | 1019.8 |
| 20260502202906 | 76 | 71 | 4.0 | 11.0 | 0.00 | 0.00 | 0.00 | 34 | 1019.8 |
| 20260502202805 | 76 | 65 | 4.0 | 11.0 | 0.00 | 0.00 | 0.00 | 34 | 1019.9 |
| 20260502202705 | 76 | 59 | 4.0 | 11.0 | 0.00 | 0.00 | 0.00 | 34 | 1019.9 |
| 20260502202605 | 76 | 59 | 4.0 | 11.0 | 0.00 | 0.00 | 0.00 | 37 | 1019.9 |
| 20260502202505 | 76 | 60 | 5.0 | 11.0 | 0.00 | 0.00 | 0.00 | 40 | 1019.9 |
| 20260502202405 | 75 | 58 | 6.0 | 14.0 | 0.00 | 0.00 | 0.00 | 38 | 1019.9 |
| 20260502202305 | 75 | 61 | 6.0 | 14.0 | 0.00 | 0.00 | 0.00 | 36 | 1019.9 |
| 20260502202205 | 75 | 61 | 6.0 | 14.0 | 0.00 | 0.00 | 0.00 | 39 | 1020.0 |
| 20260502202105 | 75 | 57 | 7.0 | 14.0 | 0.00 | 0.00 | 0.00 | 39 | 1019.9 |
| 20260502202004 | 75 | 55 | 7.0 | 14.0 | 0.00 | 0.00 | 0.00 | 38 | 1019.8 |
| 20260502201905 | 75 | 55 | 7.0 | 14.0 | 0.00 | 0.00 | 0.00 | 37 | 1019.9 |
| 20260502201805 | 75 | 56 | 6.0 | 14.0 | 0.00 | 0.00 | 0.00 | 37 | 1019.9 |
| 20260502201605 | 76 | 50 | 6.0 | 14.0 | 0.00 | 0.00 | 0.00 | 37 | 1019.9 |
| 20260502201505 | 76 | 47 | 5.0 | 14.0 | 0.00 | 0.00 | 0.00 | 37 | 1019.9 |
| 20260502201405 | 76 | 47 | 4.0 | 14.0 | 0.00 | 0.00 | 0.00 | 37 | 1019.9 |
| 20260502201305 | 76 | 41 | 4.0 | 10.0 | 0.00 | 0.00 | 0.00 | 37 | 1019.9 |
| 20260502201205 | 76 | 37 | 4.0 | 11.0 | 0.00 | 0.00 | 0.00 | 38 | 1020.0 |
| 20260502201105 | 76 | 36 | 5.0 | 13.0 | 0.00 | 0.00 | 0.00 | 38 | 1020.0 |
| 20260502201005 | 76 | 36 | 5.0 | 13.0 | 0.00 | 0.00 | 0.00 | 39 | 1020.0 |
| 20260502200905 | 76 | 38 | 6.0 | 14.0 | 0.00 | 0.00 | 0.00 | 37 | 1020.0 |
| 20260502200805 | 76 | 39 | 6.0 | 14.0 | 0.00 | 0.00 | 0.00 | 38 | 1020.0 |
| 20260502200705 | 75 | 43 | 7.0 | 14.0 | 0.00 | 0.00 | 0.00 | 38 | 1020.0 |
| 20260502200604 | 75 | 45 | 7.0 | 14.0 | 0.00 | 0.00 | 0.00 | 38 | 1020.0 |
| 20260502200505 | 75 | 44 | 8.0 | 15.0 | 0.00 | 0.00 | 0.00 | 39 | 1020.0 |
| 20260502200305 | 75 | 42 | 8.0 | 15.0 | 0.00 | 0.00 | 0.00 | 36 | 1020.1 |
| 20260502200205 | 75 | 40 | 8.0 | 15.0 | 0.00 | 0.00 | 0.00 | 36 | 1020.0 |
| 20260502200005 | 76 | 42 | 7.0 | 15.0 | 0.00 | 0.00 | 0.00 | 36 | 1019.9 |
| 20260502195805 | 76 | 42 | 6.0 | 15.0 | 0.00 | 0.00 | 0.00 | 37 | 1019.9 |
| 20260502195705 | 76 | 44 | 6.0 | 15.0 | 0.00 | 0.00 | 0.00 | 38 | 1019.9 |
| 20260502195505 | 76 | 53 | 6.0 | 14.0 | 0.00 | 0.00 | 0.00 | 36 | 1019.9 |
| 20260502195404 | 76 | 58 | 6.0 | 14.0 | 0.00 | 0.00 | 0.00 | 36 | 1019.9 |
| 20260502195305 | 76 | 63 | 6.0 | 14.0 | 0.00 | 0.00 | 0.00 | 38 | 1020.0 |
| 20260502195205 | 76 | 67 | 6.0 | 14.0 | 0.00 | 0.00 | 0.00 | 40 | 1020.0 |
| 20260502195105 | 76 | 68 | 6.0 | 13.0 | 0.00 | 0.00 | 0.00 | 41 | 1020.0 |
| 20260502195004 | 75 | 67 | 7.0 | 13.0 | 0.00 | 0.00 | 0.00 | 41 | 1020.0 |
| 20260502194905 | 75 | 64 | 7.0 | 13.0 | 0.00 | 0.01 | 0.00 | 41 | 1020.0 |
| 20260502194804 | 74 | 59 | 8.0 | 14.0 | 0.00 | 0.01 | 0.00 | 39 | 1020.0 |
| 20260502194705 | 74 | 55 | 8.0 | 15.0 | 0.00 | 0.01 | 0.00 | 40 | 1020.0 |
| 20260502194605 | 74 | 49 | 8.0 | 15.0 | 0.00 | 0.01 | 0.00 | 40 | 1020.0 |
| 20260502194505 | 74 | 46 | 7.0 | 15.0 | 0.00 | 0.01 | 0.00 | 41 | 1020.1 |
| 20260502194405 | 73 | 41 | 7.0 | 15.0 | 0.00 | 0.01 | 0.00 | 41 | 1020.1 |
| 20260502194305 | 73 | 38 | 7.0 | 15.0 | 0.00 | 0.01 | 0.00 | 40 | 1020.1 |
| 20260502194105 | 73 | 31 | 6.0 | 15.0 | 0.00 | 0.01 | 0.00 | 40 | 1020.0 |
| 20260502194005 | 73 | 30 | 6.0 | 15.0 | 0.00 | 0.01 | 0.00 | 39 | 1020.1 |
| 20260502193804 | 74 | 32 | 6.0 | 15.0 | 0.00 | 0.01 | 0.00 | 40 | 1020.0 |
| 20260502193705 | 74 | 31 | 6.0 | 13.0 | 0.00 | 0.01 | 0.00 | 37 | 1019.9 |
| 20260502193507 | 76 | 37 | 6.0 | 13.0 | 0.00 | 0.01 | 0.00 | 41 | 1020.1 |
| 20260502193405 | 76 | 38 | 6.0 | 13.0 | 0.00 | 0.01 | 0.00 | 40 | 1020.1 |
| 20260502193305 | 76 | 38 | 6.0 | 13.0 | 0.00 | 0.01 | 0.00 | 42 | 1020.1 |
| 20260502193205 | 76 | 35 | 5.0 | 13.0 | 0.00 | 0.01 | 0.00 | 42 | 1020.1 |
| 20260502193005 | 76 | 35 | 5.0 | 13.0 | 0.00 | 0.01 | 0.00 | 42 | 1020.1 |
| 20260502192905 | 76 | 31 | 5.0 | 13.0 | 0.00 | 0.01 | 0.00 | 42 | 1020.1 |
| 20260502192805 | 75 | 31 | 5.0 | 13.0 | 0.00 | 0.01 | 0.00 | 39 | 1020.0 |
| 20260502192705 | 75 | 31 | 5.0 | 14.0 | 0.00 | 0.01 | 0.00 | 42 | 1020.0 |
| 20260502192605 | 75 | 28 | 5.0 | 14.0 | 0.00 | 0.01 | 0.00 | 43 | 1020.0 |